[{"header": {"dx": 0.06612293990616946, "dy": 0.0552356325346848, "nx": 98, "ny": 59, "la1": 35.046912555036876, "la2": 31.78801023549047, "lo1": -121.43107172385933, "lo2": -114.95102361305473, "refTime": "2026040721", "parameterCategory": 1, "parameterNumber": 2}, "data": [8.56, 8.56, 8.85, 9.13, 9.42, 9.42, 9.94, 9.94, 10.23, 10.3, 9.92, 9.48, 10.85, 10.41, 9.68, 9.35, 9.79, 8.89, 5.06, 0.0, -1.73, -3.2, -2.8, -3.91, -3.63, -3.91, -4.43, -4.43, -3.91, -3.91, -2.99, -1.99, -1.05, 0.0, 1.05, 1.84, 2.8, 3.72, 3.72, 4.74, 5.46, 6.99, 7.81, 8.73, 9.86, 9.67, 10.66, 10.01, 10.04, 9.43, 8.95, 8.99, 7.85, 6.26, 4.92, 3.72, 3.72, 4.77, 4.77, 4.34, 4.34, 3.82, 2.8, 2.8, 3.39, 3.82, 3.82, 3.82, 3.82, 3.2, 1.9, -0.0, -0.0, 1.9, 2.24, 2.24, 0.0, 0.0, 0.0, 0.0, 0.0, 0.0, 1.27, 2.23, 2.53, 3.47, 4.92, 5.81, 5.36, 3.48, -0.0, -0.0, -0.0, -0.0, 0.96, 1.14, -0.0, -1.05, 8.56, 8.56, 8.85, 9.13, 9.13, 9.42, 9.66, 9.94, 10.23, 9.86, 9.21, 10.28, 10.0, 9.6, 10.18, 9.54, 8.77, 10.2, 8.06, 1.98, 0.0, -1.73, -3.2, -3.2, -3.91, -3.91, -3.91, -4.19, -3.72, -3.72, -3.0, -1.98, -1.03, 0.0, 1.03, 1.98, 2.82, 2.82, 3.55, 4.42, 5.69, 6.95, 7.9, 8.22, 8.85, 9.96, 8.93, 8.31, 8.38, 8.43, 8.4, 8.56, 8.33, 7.11, 5.36, 4.77, 4.77, 4.77, 4.82, 4.82, 4.47, 3.58, 3.13, 3.13, 3.58, 4.02, 4.02, 4.02, 3.82, 3.39, 2.8, 2.24, 2.24, 2.24, 2.68, 1.9, 1.4, 0.0, 0.0, 0.0, 0.0, 0.0, 1.27, 2.23, 2.53, 3.47, 4.92, 5.81, 5.36, 3.48, -0.0, -0.0, -0.0, -0.0, 0.96, 1.14, -0.0, -1.05, 8.56, 8.56, 8.56, 9.13, 9.46, 9.46, 9.66, 9.94, 10.23, 9.86, 8.65, 7.72, 10.0, 9.9, 9.08, 9.49, 9.49, 9.49, 9.42, 6.79, 0.0, -1.49, -1.49, -3.4, -4.56, -3.91, -3.91, -3.47, -3.72, -3.55, -2.67, -2.67, -1.96, 0.0, 0.0, 1.49, 2.82, 2.67, 3.6, 4.12, 5.64, 7.44, 8.18, 8.84, 8.95, 8.42, 7.59, 7.06, 6.73, 7.15, 7.82, 7.76, 8.29, 8.0, 6.26, 5.36, 4.92, 5.26, 5.26, 5.36, 4.92, 4.02, 3.58, 3.58, 3.58, 4.02, 4.02, 4.02, 4.02, 4.02, 3.58, 3.13, 1.9, 1.9, 3.13, 2.8, 1.6, 0.0, 0.0, 0.0, 0.0, 0.0, 1.27, 1.27, 1.98, 2.98, 4.15, 5.73, 4.34, 0.96, -0.0, -0.0, -0.0, 0.96, 2.16, 2.4, 1.19, -0.0, 8.24, 8.56, 8.56, 8.85, 9.46, 9.46, 10.01, 9.66, 9.94, 9.86, 8.65, 7.51, 9.43, 8.8, 8.95, 9.36, 9.36, 9.77, 9.9, 8.72, 3.97, 0.0, -1.49, -2.64, -3.97, -4.83, -3.72, -3.0, -1.84, -1.73, -1.75, -2.44, -1.84, -1.4, 0.0, 1.58, 2.83, 3.87, 4.25, 5.2, 7.25, 8.99, 8.99, 8.05, 7.51, 7.48, 7.06, 6.55, 6.18, 6.18, 6.44, 7.2, 7.63, 8.0, 7.1, 6.26, 5.81, 5.36, 5.36, 5.36, 4.92, 4.47, 4.02, 3.82, 3.82, 3.82, 4.34, 3.47, 3.9, 3.6, 4.4, 2.48, 1.13, 0.0, 1.9, 3.2, 3.2, 0.0, -1.27, 0.0, 0.0, 1.13, 1.27, 1.27, 2.23, 3.93, 4.6, 4.77, 1.27, -0.0, -0.0, -0.0, -0.0, 0.96, 2.99, 4.29, 2.73, -0.0, 8.24, 8.56, 8.56, 8.56, 9.13, 9.46, 9.72, 10.01, 9.94, 9.86, 8.38, 7.51, 8.79, 9.2, 8.95, 9.36, 9.2, 9.42, 9.42, 9.42, 8.18, 1.58, 0.0, -2.99, -2.99, -4.37, -3.15, -2.99, -1.4, -0.94, 0.0, -0.81, -1.68, -1.75, 0.0, 0.0, 1.28, 3.92, 4.81, 5.62, 7.11, 7.93, 7.9, 7.64, 7.48, 6.95, 7.15, 7.2, 6.57, 6.21, 6.21, 6.21, 7.12, 7.37, 7.54, 6.71, 6.26, 5.81, 5.36, 5.36, 4.92, 4.92, 4.47, 4.34, 4.34, 4.34, 4.34, 4.34, 4.4, 4.29, 4.11, 1.99, 0.0, 0.0, 0.0, 2.21, 3.2, 0.0, -1.27, -0.99, 0.99, 2.84, 2.23, 1.27, 2.48, 4.4, 4.77, 2.84, -0.0, -0.0, -0.0, 0.96, 0.96, 2.16, 4.11, 4.98, 3.72, -0.0, 8.24, 8.56, 8.56, 8.56, 9.13, 9.46, 9.46, 10.01, 9.66, 9.59, 8.38, 6.87, 8.42, 9.2, 9.55, 9.36, 9.03, 9.81, 9.04, 9.4, 8.47, 2.83, 0.0, -1.47, -1.4, -1.58, -2.69, -1.4, -1.47, 0.0, 0.0, 0.89, 0.85, 0.0, 0.0, 0.0, 0.85, 3.25, 4.81, 4.91, 4.87, 5.8, 6.57, 7.9, 8.02, 7.76, 8.21, 8.06, 7.85, 6.94, 6.45, 6.45, 6.45, 6.45, 7.08, 6.71, 6.26, 5.81, 5.81, 5.29, 4.82, 4.34, 4.47, 4.34, 4.77, 4.77, 4.0, 4.34, 5.26, 4.98, 3.48, 1.05, 0.0, 0.0, 0.0, 0.0, 1.6, 1.4, 0.0, -1.27, 0.0, 2.84, 2.84, 2.53, 3.82, 4.47, 4.4, 2.16, -0.0, -0.0, -0.0, 1.03, 2.99, 4.11, 5.37, 5.4, 3.35, -0.0, 8.24, 8.24, 8.56, 8.56, 8.85, 9.46, 9.46, 9.46, 9.66, 9.02, 8.08, 6.28, 8.06, 9.03, 10.21, 9.36, 9.9, 10.2, 9.67, 9.3, 9.92, 7.68, 1.73, -1.0, -1.47, 0.0, -1.4, -1.47, -1.26, -0.94, 0.0, 1.75, 4.34, 4.5, 1.65, 0.0, 0.89, 2.7, 2.52, 2.45, 2.4, 2.52, 3.68, 5.92, 7.59, 7.06, 7.81, 7.82, 8.06, 8.38, 7.01, 5.73, 5.73, 6.17, 6.17, 6.26, 5.81, 5.81, 6.26, 5.73, 4.82, 4.47, 4.77, 4.77, 4.92, 4.77, 4.34, 4.0, 4.77, 4.92, 3.58, 0.0, -1.27, -1.08, -1.19, -1.08, 0.0, 0.0, 0.0, -1.27, 0.0, 1.6, 3.58, 3.58, 2.84, 2.68, 3.22, 2.12, 1.03, 1.03, 0.82, 1.7, 3.91, 5.37, 5.94, 5.73, 3.6, -0.0, 7.95, 8.24, 8.56, 8.56, 8.87, 9.17, 9.46, 9.46, 9.42, 8.78, 7.23, 5.71, 7.4, 8.79, 10.16, 8.88, 9.84, 10.63, 10.8, 10.04, 10.63, 10.68, 9.36, 4.87, 0.95, 0.0, 0.0, -1.4, -1.47, -1.33, 0.0, 1.33, 3.92, 5.32, 2.4, 0.0, 0.0, 1.4, 0.0, 0.0, 1.28, 2.71, 2.6, 3.87, 4.0, 5.59, 6.45, 6.79, 7.2, 7.6, 5.94, 5.73, 5.26, 5.26, 5.29, 5.81, 5.73, 6.17, 5.73, 5.81, 5.36, 4.92, 4.92, 4.47, 4.47, 4.92, 4.92, 4.47, 4.47, 4.24, 2.23, -0.0, -2.53, -3.2, -3.13, -1.2, 0.0, 0.0, 0.0, -2.84, -3.39, 1.79, 1.58, 1.98, 1.66, 1.83, 1.7, 2.16, 0.96, 0.96, 0.88, 2.53, 4.11, 5.94, 6.2, 5.81, 3.6, -0.0, 7.95, 8.24, 8.56, 8.56, 8.87, 9.17, 9.17, 9.46, 9.13, 8.5, 6.97, 5.72, 7.51, 7.26, 8.22, 8.22, 8.97, 10.01, 10.66, 10.18, 10.24, 10.55, 11.27, 10.6, 8.0, 6.26, 4.47, 0.0, 0.0, 0.0, 0.0, 2.42, 3.87, 4.83, 4.29, 1.4, -3.48, -1.52, -3.16, -3.2, 0.0, 1.33, 2.58, 2.69, 3.4, 3.91, 6.08, 7.06, 6.57, 6.57, 6.64, 4.98, 4.98, 4.98, 5.26, 5.51, 5.51, 5.73, 5.73, 5.73, 5.29, 5.26, 4.82, 4.47, 4.47, 4.92, 4.92, 4.47, 4.24, 3.72, 2.84, -0.0, -1.08, -1.8, -1.2, 2.24, 0.0, 0.0, -2.53, -2.98, -4.24, -2.24, -0.0, -0.0, 0.87, 0.98, 2.0, 2.2, 0.96, 1.83, 1.66, 2.68, 4.22, 5.94, 5.94, 5.7, 3.48, -0.0, 7.95, 8.24, 8.24, 8.56, 8.56, 9.17, 9.17, 9.46, 9.13, 8.53, 7.6, 7.33, 7.32, 6.35, 7.36, 6.48, 7.19, 7.78, 8.54, 7.27, 7.9, 8.93, 9.97, 8.94, 6.9, 6.9, 6.4, 6.07, 5.21, 1.58, 0.0, 0.0, 4.02, 4.11, 5.58, 4.11, -0.0, -0.89, -0.0, -0.0, 1.79, 2.23, 4.29, 5.4, 5.73, 5.81, 6.64, 7.1, 7.6, 7.6, 7.1, 6.45, 5.37, 4.98, 4.98, 4.98, 5.6, 5.6, 5.6, 5.51, 5.4, 4.98, 5.51, 3.82, 4.34, 4.82, 4.92, 4.02, 4.02, 4.34, 3.2, -0.0, -0.0, -0.0, -0.0, 1.58, 2.68, 2.24, -2.24, -2.97, -2.98, -2.53, -2.24, 1.34, -0.0, 1.58, 1.2, 0.99, 1.13, 1.98, 2.53, 3.22, 4.29, 5.37, 5.6, 4.98, 4.11, 3.22, 7.95, 7.95, 8.24, 8.56, 8.56, 8.87, 9.17, 9.17, 9.17, 8.85, 8.24, 8.24, 9.17, 9.13, 9.92, 7.64, 7.1, 3.84, 3.59, 3.09, 3.9, 3.58, 3.72, 1.99, 1.52, 1.7, 2.2, 2.2, 3.79, 4.92, 3.58, -0.0, -0.0, 2.16, 2.76, 3.47, 3.0, 2.82, 3.97, 5.37, 5.49, 6.16, 6.45, 7.94, 7.63, 6.57, 7.12, 7.37, 7.55, 7.6, 7.55, 7.37, 5.58, 4.74, 4.74, 4.74, 5.49, 5.06, 4.74, 4.89, 4.89, 4.11, 3.48, 3.72, 3.72, 4.4, 4.4, 4.34, 4.34, 4.02, 3.13, 1.79, 1.34, 0.0, 0.0, 1.58, 2.24, 2.68, -0.0, -2.68, -1.9, -1.98, -0.87, -1.2, 0.0, 1.79, 1.79, 1.79, 1.79, 1.58, 2.21, 3.35, 3.48, 4.54, 5.6, 4.89, 4.19, 3.72, 7.95, 7.95, 8.24, 8.56, 8.56, 8.87, 9.17, 9.17, 9.17, 8.56, 8.56, 8.58, 9.19, 10.65, 11.34, 10.68, 8.28, 6.56, 4.84, 2.17, -0.6, -2.53, -1.61, -2.8, -2.8, -3.22, -4.84, -1.26, -1.08, -0.0, 2.8, 2.12, 2.32, 2.95, 2.95, 3.63, 4.74, 5.69, 6.11, 7.2, 6.82, 7.2, 7.12, 7.5, 7.01, 5.73, 7.01, 7.15, 7.6, 7.89, 6.57, 6.6, 5.49, 4.58, 3.77, 4.68, 3.77, 3.97, 3.97, 3.91, 3.48, 3.72, 3.16, 2.95, 3.22, 4.65, 4.11, 3.79, 3.22, 3.48, 2.53, 1.74, 0.99, 1.27, 0.0, 0.0, 0.0, 2.24, -0.0, -0.0, 2.68, 0.0, 0.0, -1.08, -0.87, 0.0, 0.0, 0.0, 1.26, 1.79, 1.79, 1.9, 2.84, 4.29, 5.37, 4.89, 4.74, 5.06, 7.61, 7.95, 8.24, 8.56, 8.56, 8.87, 8.87, 9.17, 9.17, 9.17, 9.17, 9.17, 9.19, 10.4, 12.0, 13.08, 13.09, 11.74, 10.04, 7.07, 2.68, -0.63, -2.79, -3.88, -4.6, -4.77, -4.34, -3.87, -2.68, -1.24, 1.08, 3.91, 3.91, 4.11, 3.63, 4.74, 4.74, 6.18, 6.18, 7.2, 7.53, 6.94, 6.2, 5.36, 5.36, 4.92, 5.51, 6.71, 7.15, 6.64, 5.21, 5.06, 4.29, 4.54, 4.74, 5.21, 3.72, 1.49, 0.0, -1.9, -0.0, 2.48, 3.82, 4.4, 4.54, 4.89, 4.43, 3.91, 1.98, 1.84, 1.05, 1.05, 1.05, 0.96, 0.0, 0.0, -1.27, -1.4, -1.58, 1.34, 2.68, 3.58, 2.24, 2.24, 0.0, 0.0, -0.98, -0.99, 0.0, 0.0, 1.34, 1.79, 2.68, 4.34, 4.98, 4.89, 5.24, 5.15, 7.61, 7.95, 8.24, 8.24, 8.56, 8.56, 8.87, 8.87, 9.17, 9.17, 9.17, 9.48, 9.48, 10.4, 11.52, 12.82, 13.82, 13.81, 12.98, 11.71, 8.64, 3.39, 0.0, -1.7, -2.6, -2.63, -3.07, -2.91, -2.15, -1.58, -0.0, 3.22, 5.06, 4.89, 4.74, 4.74, 5.15, 6.18, 7.12, 7.37, 7.37, 6.64, 6.71, 5.81, 4.92, 2.2, 2.76, 6.4, 7.01, 7.15, 7.15, 6.51, 4.92, 2.2, 3.22, 3.48, 5.94, 0.0, -5.21, -4.11, -0.84, 1.4, 3.4, 5.21, 4.92, 5.73, 5.6, 4.11, 1.73, 0.0, 0.0, 0.0, -1.05, -2.84, -3.2, -3.2, -2.84, -2.84, -1.6, 0.0, 1.6, 3.2, 2.24, 1.79, 0.0, 0.0, -2.48, -3.16, -1.2, 0.0, 0.0, 0.0, 1.58, 3.13, 3.9, 4.98, 5.6, 6.0, 7.61, 7.95, 8.24, 8.24, 8.56, 8.56, 8.56, 8.87, 9.17, 9.17, 9.48, 9.48, 9.77, 10.36, 11.28, 12.37, 13.23, 13.82, 13.81, 13.09, 11.56, 8.06, 4.34, 2.24, 1.34, 0.8, 0.63, -0.0, -0.0, -0.0, -0.0, 0.99, 4.43, 5.72, 5.72, 5.37, 6.63, 6.6, 8.06, 7.1, 7.15, 7.6, 7.15, 6.71, 4.46, 1.32, 1.49, 4.02, 5.36, 6.4, 6.4, 6.0, 3.2, 1.4, 1.63, 4.74, 6.0, 3.39, -0.0, -1.73, -0.0, 1.49, 2.82, 3.4, 5.06, 5.58, 6.51, 6.71, 5.2, 0.0, -3.22, -4.29, -4.47, -3.48, -2.4, -1.27, -3.13, -3.2, -1.13, 0.0, 0.0, 1.6, 0.0, 0.0, 1.79, 2.68, -2.21, -3.72, -0.99, 0.0, 0.0, -0.99, 0.0, 1.58, 3.58, 5.26, 5.4, 5.4, 7.61, 7.95, 8.24, 8.24, 8.56, 8.56, 8.56, 8.87, 9.17, 9.17, 9.17, 9.48, 9.77, 10.36, 10.94, 11.8, 12.27, 12.95, 13.71, 13.74, 12.6, 10.66, 8.21, 6.23, 5.36, 5.34, 5.24, 4.77, 3.2, 1.24, 0.6, 1.26, 2.68, 6.0, 5.72, 4.74, 6.18, 6.8, 7.94, 7.6, 6.64, 6.26, 6.71, 6.51, 4.02, 1.25, 1.25, 3.2, 4.02, 4.74, 4.74, 4.74, 4.29, 4.02, 4.43, 5.21, 6.51, 6.0, 4.56, 4.14, 2.82, 4.29, 4.02, 4.74, 5.06, 5.06, 4.89, 6.9, 7.6, 1.98, -4.4, -4.6, -2.8, -0.89, -0.0, 1.84, 1.05, 2.24, 0.0, 0.0, 0.0, 0.0, 0.0, 0.0, 0.0, 2.24, 2.21, 2.24, 0.0, 0.0, -1.6, -2.21, 0.0, 2.4, 3.47, 4.02, 4.47, 4.47, 7.61, 7.61, 7.95, 8.24, 8.24, 8.56, 8.56, 8.56, 8.87, 9.17, 9.17, 9.77, 9.77, 10.36, 10.65, 11.16, 11.62, 12.42, 12.79, 13.32, 12.78, 10.66, 9.11, 8.03, 8.05, 8.48, 8.47, 7.58, 5.34, 2.6, 0.6, 1.26, 2.0, 5.21, 3.63, 4.29, 5.15, 6.64, 6.71, 6.26, 5.81, 4.4, 5.36, 4.43, 4.14, 2.54, 2.54, 3.91, 5.06, 5.72, 5.36, 4.74, 4.74, 5.36, 6.0, 7.01, 7.5, 7.63, 6.63, 6.32, 6.01, 5.37, 5.72, 6.0, 6.0, 5.51, 6.4, 6.4, 7.6, 5.2, -5.2, -3.33, -1.96, -0.0, 0.84, 2.67, 3.97, 3.48, 1.9, 0.0, -1.19, -2.2, -2.73, -1.98, -1.6, 0.0, 3.13, 3.13, 2.68, 2.24, -2.98, -1.98, 0.0, 2.4, 3.82, 3.39, 3.58, 3.58, 7.61, 7.61, 7.95, 7.95, 8.24, 8.56, 8.56, 8.56, 8.87, 9.17, 9.17, 9.77, 9.77, 10.65, 10.3, 10.8, 11.62, 12.16, 12.28, 12.11, 12.18, 11.4, 9.68, 8.92, 9.39, 9.39, 8.48, 7.58, 4.89, 1.34, -0.0, 0.6, 1.26, 1.61, 2.23, 3.79, 3.93, 6.07, 6.07, 6.07, 4.43, 3.2, 4.29, 3.91, 4.37, 3.8, 5.31, 5.69, 6.9, 6.52, 6.52, 5.72, 5.72, 6.4, 6.64, 7.45, 7.94, 7.63, 7.28, 7.28, 6.9, 6.9, 6.64, 7.01, 6.71, 5.81, 5.81, 7.15, 7.15, 5.58, -0.0, -0.0, -0.0, -0.0, 1.84, 2.99, 3.77, 3.72, 3.48, 2.68, -2.21, -3.72, -4.4, -0.99, 0.0, 0.0, 0.0, 3.13, 2.8, 1.4, 2.24, -1.27, 0.0, 1.58, 3.13, 3.13, 2.24, 2.24, 7.61, 7.61, 7.95, 7.95, 7.95, 8.24, 8.56, 8.56, 8.56, 9.17, 9.17, 10.06, 10.06, 10.3, 10.06, 12.22, 10.59, 10.7, 10.55, 11.08, 12.18, 12.46, 10.18, 10.68, 9.97, 10.41, 4.11, 6.16, 3.35, 0.0, -0.0, -0.0, 0.99, 1.58, 1.9, 2.15, 3.07, 4.02, 6.64, 7.47, 5.82, 5.37, 5.37, 5.37, 5.03, 6.01, 6.63, 7.6, 7.2, 7.47, 7.06, 7.06, 6.13, 6.64, 6.64, 7.06, 7.06, 7.63, 7.6, 7.6, 7.63, 7.63, 7.5, 6.26, 6.26, 6.17, 6.2, 6.64, 6.65, 7.28, 6.01, 5.37, 4.87, 3.72, 3.0, 1.84, 1.96, 2.82, 3.0, 2.99, -1.8, -4.24, -4.02, -2.8, -2.21, -2.21, -2.68, -2.24, -0.0, 1.98, 3.2, 2.24, -1.9, 1.34, 2.68, 3.13, 2.68, 2.68, 7.33, 7.61, 7.61, 7.95, 7.95, 8.24, 8.56, 8.56, 8.56, 9.46, 9.46, 9.72, 10.06, 10.06, 10.3, 10.3, 10.01, 8.73, 10.01, 11.26, 13.64, 11.6, 10.16, 10.66, 9.4, 7.82, 3.79, 0.0, -0.45, -0.45, -0.0, 0.6, 0.99, 1.58, 2.15, 2.49, 3.53, 4.47, 5.36, 6.23, 6.47, 5.88, 5.4, 5.31, 5.31, 7.6, 7.6, 8.06, 7.63, 7.63, 7.06, 6.52, 6.52, 6.52, 6.0, 6.57, 7.63, 6.7, 7.12, 8.41, 7.94, 8.05, 7.6, 7.6, 6.17, 5.73, 6.17, 6.64, 7.15, 7.85, 7.76, 8.72, 8.56, 6.45, 3.48, 1.05, 0.96, 0.89, 2.82, 2.82, 1.98, -0.0, -3.72, -4.02, -3.58, -3.13, -2.68, -2.24, 1.79, 1.58, 4.24, 2.53, -1.6, -1.6, -0.0, 1.6, 1.4, 1.4, 7.33, 7.33, 7.61, 7.95, 7.95, 7.95, 8.56, 8.56, 8.85, 9.13, 9.46, 9.72, 10.06, 10.3, 10.65, 10.88, 10.23, 8.73, 7.27, 10.58, 11.9, 8.65, 7.73, 7.23, 7.35, 6.1, 3.99, 2.24, 0.89, 0.63, 1.26, 1.58, 1.9, 2.15, 2.5, 2.91, 3.53, 4.47, 5.36, 6.23, 6.6, 6.16, 5.7, 5.24, 4.8, 7.63, 7.63, 7.63, 7.94, 7.45, 6.64, 5.72, 6.08, 6.08, 6.52, 6.21, 6.8, 7.21, 8.41, 8.49, 8.05, 8.05, 7.6, 7.6, 6.2, 6.17, 6.17, 6.26, 7.1, 7.42, 8.33, 9.35, 8.9, 5.51, 2.24, -1.13, -0.0, 1.03, 1.84, 2.82, 3.97, 2.8, -0.0, -2.53, -3.58, -3.58, -3.2, -1.2, -1.9, 1.79, 3.13, 1.27, -0.0, -0.98, -0.0, 1.98, 2.98, 2.98, 7.33, 7.33, 7.33, 7.95, 7.95, 7.95, 8.24, 8.85, 8.85, 9.13, 9.46, 9.72, 10.06, 10.3, 10.65, 10.88, 10.59, 9.37, 9.08, 10.01, 9.5, 7.61, 4.94, 4.43, 5.59, 7.01, 7.07, 6.26, 5.36, 3.98, 3.2, 3.07, 3.07, 3.07, 3.07, 3.39, 3.87, 4.44, 5.33, 5.78, 5.78, 5.78, 5.24, 4.8, 4.77, 5.09, 8.38, 7.94, 7.45, 6.4, 4.29, 4.56, 5.06, 5.72, 5.72, 6.52, 6.6, 7.63, 8.41, 7.94, 6.94, 7.37, 7.37, 6.94, 6.45, 6.02, 6.17, 6.26, 6.26, 7.89, 8.38, 8.05, 4.29, 0.0, -3.39, -2.21, -0.87, -0.0, -0.0, 1.72, 2.82, 3.33, 1.98, -0.0, -0.0, -1.6, -2.8, -3.58, -3.58, -2.24, -1.58, -0.0, -0.0, -0.0, -0.0, 1.98, 3.72, 3.72, 7.33, 7.33, 7.33, 7.61, 8.24, 8.24, 8.24, 8.53, 8.85, 9.13, 9.46, 9.72, 10.06, 10.65, 10.65, 10.88, 10.65, 10.23, 10.01, 10.51, 10.68, 9.01, 6.79, 4.4, 4.0, 5.6, 6.97, 7.58, 6.71, 5.7, 4.6, 4.11, 3.7, 3.7, 3.87, 3.87, 4.3, 4.44, 4.89, 5.34, 5.34, 5.34, 4.89, 4.88, 4.34, 4.77, 7.94, 7.01, 5.6, 4.29, 3.91, 4.56, 5.72, 5.72, 5.72, 5.72, 5.58, 6.8, 8.38, 6.64, 6.21, 6.18, 6.6, 6.21, 6.0, 5.6, 5.51, 5.81, 6.26, 6.2, 7.89, 5.94, -5.6, -5.51, -4.92, -3.39, -2.53, -1.66, -0.88, -0.0, 0.78, 1.96, 1.84, 1.96, 1.84, 0.96, -0.0, -1.99, -3.48, -4.77, -3.58, -2.4, -0.0, -0.0, 1.4, 2.21, 2.98, 2.98, 7.33, 7.33, 7.61, 7.61, 7.93, 8.24, 8.24, 8.53, 8.85, 9.13, 9.46, 9.72, 9.77, 10.36, 10.65, 10.65, 10.3, 10.59, 10.23, 10.51, 10.58, 10.62, 9.27, 7.26, 5.99, 5.57, 6.16, 6.68, 6.26, 5.79, 5.24, 4.6, 4.19, 4.34, 4.34, 4.34, 4.44, 4.88, 4.89, 5.33, 5.34, 5.33, 4.89, 4.44, 3.98, 3.98, 7.01, 6.4, 4.29, 3.91, 4.14, 5.37, 5.72, 5.72, 5.72, 5.72, 5.6, 6.0, 7.06, 6.26, 4.11, 3.97, 4.58, 4.74, 4.98, 4.82, 4.92, 5.81, 5.36, 6.26, 7.15, -4.02, -5.94, -5.4, -5.36, -5.36, -4.84, -3.0, -2.66, -1.63, -0.0, -0.0, 0.83, 1.63, 2.99, 1.96, 0.95, -0.0, -0.0, -3.2, -4.47, -3.13, -2.24, -0.0, 1.58, 2.4, 2.8, 2.8, 7.33, 7.33, 7.61, 7.61, 7.61, 7.61, 8.24, 8.53, 8.53, 8.85, 9.46, 9.77, 10.09, 10.36, 10.65, 10.3, 10.59, 10.59, 10.23, 10.51, 10.79, 10.3, 10.62, 9.7, 8.64, 7.4, 6.61, 6.68, 6.26, 6.23, 5.7, 5.24, 4.8, 4.8, 4.89, 4.89, 4.88, 4.89, 4.89, 5.36, 5.36, 4.92, 4.92, 4.47, 4.02, 4.02, 4.92, 5.09, 4.93, 4.07, 3.73, 6.08, 5.72, 5.72, 5.72, 6.4, 6.0, 5.51, 6.94, 5.94, 4.92, 2.2, 1.99, 2.48, 3.13, 3.16, 4.29, 5.4, 5.73, 7.1, 8.0, 5.81, -3.48, -6.0, -5.51, -5.81, -5.2, -4.74, -5.03, -3.55, -2.35, -0.78, -0.0, 1.63, 1.84, 1.96, 1.96, 1.96, 1.98, 0.98, -1.9, -3.9, -3.13, -2.24, 1.34, 1.79, 1.58, 1.58, 6.98, 6.98, 7.32, 7.61, 7.61, 7.61, 7.93, 8.24, 8.53, 8.85, 9.46, 9.77, 9.77, 10.65, 10.3, 10.59, 10.23, 10.23, 10.23, 10.51, 10.41, 10.3, 10.16, 10.21, 9.7, 9.11, 8.33, 7.58, 7.15, 6.26, 5.79, 5.78, 5.78, 5.34, 5.34, 5.36, 4.92, 4.92, 4.92, 5.36, 5.36, 4.92, 4.92, 4.47, 4.02, 4.02, 4.47, 4.88, 4.6, 4.11, 3.35, 3.35, 5.72, 5.72, 6.08, 6.52, 6.0, 6.07, 6.51, 6.8, 6.94, 5.81, 3.2, 1.9, -0.0, 1.84, 3.55, 5.49, 6.71, 7.08, 7.37, 8.38, 2.21, -4.11, -5.58, -6.64, -6.21, -5.82, -5.49, -4.42, -3.55, -1.72, -0.0, -0.0, 0.83, 0.89, 1.84, 2.99, 3.0, 2.6, 1.05, -3.39, -3.9, -3.13, -2.24, 2.24, -0.0, -0.0, 6.98, 6.98, 7.32, 7.32, 7.32, 7.61, 7.93, 7.93, 8.53, 8.85, 9.13, 9.44, 10.06, 10.06, 10.3, 10.23, 10.23, 10.23, 10.51, 10.15, 9.86, 10.13, 10.02, 9.88, 10.21, 10.12, 9.57, 8.79, 7.97, 7.6, 6.71, 7.58, 7.15, 6.71, 6.26, 5.81, 5.81, 5.36, 5.36, 5.36, 5.33, 4.89, 4.89, 4.47, 4.47, 4.44, 4.02, 4.02, 3.53, 3.32, 2.68, 3.07, 3.2, 3.35, 5.6, 6.0, 7.06, 6.0, 5.6, 6.0, 8.38, 6.94, 7.01, 3.22, 1.32, 2.67, 4.68, 6.6, 6.94, 7.15, 7.37, 7.85, 6.64, 2.53, -3.72, -5.4, -6.71, -6.21, -6.57, -5.49, -4.58, -2.6, -0.81, -0.0, -0.0, 0.78, 2.67, 3.77, 2.82, 1.84, 1.72, 0.88, -4.47, -4.02, -2.68, -0.0, -0.0, -0.0, 6.98, 6.98, 6.98, 7.32, 7.32, 7.32, 7.32, 7.93, 7.93, 8.85, 9.13, 9.46, 9.72, 9.72, 10.01, 10.23, 10.51, 10.51, 10.15, 9.94, 9.86, 9.76, 9.63, 9.63, 9.88, 9.92, 9.7, 9.7, 9.39, 8.67, 8.33, 7.97, 7.51, 7.13, 6.68, 6.23, 5.79, 5.78, 5.34, 5.33, 5.33, 4.8, 4.89, 4.8, 4.6, 4.27, 3.35, 3.13, 2.63, 2.4, 2.8, 2.91, 2.91, 2.91, 3.39, 5.94, 6.64, 5.72, 4.89, 6.0, 7.1, 7.6, 7.1, 4.58, 3.27, 4.2, 6.11, 7.53, 7.55, 7.6, 7.55, 7.85, 8.29, 7.15, 3.72, -2.84, -5.36, -6.26, -6.71, -6.0, -5.58, -1.95, -0.53, -0.0, -0.0, 0.88, 2.47, 2.82, 1.96, 1.01, 1.96, 1.84, -1.19, -2.98, -2.8, -1.58, 1.79, 1.79, 6.98, 6.98, 6.98, 7.32, 7.32, 7.6, 7.6, 8.22, 8.22, 8.53, 9.13, 9.46, 9.72, 10.01, 10.01, 10.01, 10.51, 10.15, 9.94, 9.86, 9.5, 9.58, 9.48, 9.48, 9.48, 9.35, 9.2, 9.01, 9.21, 8.96, 8.64, 8.21, 7.87, 7.4, 7.06, 6.61, 6.16, 5.7, 5.7, 5.26, 5.24, 4.8, 4.6, 6.45, 5.51, 3.14, 2.23, 1.24, 0.89, 1.86, 2.4, 2.4, 2.91, 3.07, 3.09, 3.54, 6.51, 5.72, 4.89, 6.0, 6.64, 7.6, 6.45, 5.15, 4.34, 6.01, 6.79, 7.53, 7.6, 7.85, 7.81, 7.85, 8.06, 6.26, 0.96, -0.89, -2.4, -4.92, -6.2, -5.81, -4.98, -1.61, -1.0, -0.0, -0.0, -0.0, 0.88, 1.03, 0.95, 0.95, 1.84, 3.0, 2.47, -0.0, -1.4, -0.0, 1.79, 1.79, 6.98, 6.98, 6.98, 7.32, 7.6, 7.6, 7.6, 7.9, 8.22, 8.53, 8.53, 9.13, 9.42, 9.66, 9.66, 9.94, 9.94, 9.94, 9.94, 9.86, 9.3, 9.21, 9.21, 9.1, 9.1, 8.96, 9.2, 8.8, 9.01, 8.79, 8.91, 8.48, 8.17, 7.74, 7.4, 6.94, 6.47, 6.04, 5.57, 5.57, 5.09, 5.09, 4.9, 5.09, 4.44, 5.6, 2.16, 0.0, -0.0, 1.24, 2.23, 2.4, 2.63, 3.07, 3.09, 3.58, 3.98, 4.3, 5.6, 5.6, 6.64, 7.1, 6.6, 5.53, 6.45, 6.55, 6.55, 7.28, 6.26, 6.21, 6.18, 6.99, 6.94, 4.02, -2.4, -3.0, -0.95, -2.2, -4.92, -5.81, -4.82, -1.86, -0.99, -0.57, -0.0, -0.0, -0.0, 0.88, 0.88, 1.66, 1.83, 2.99, 2.4, 2.16, -0.0, -0.0, -0.0, -0.0, 6.7, 6.7, 6.7, 6.98, 7.6, 7.6, 7.6, 7.9, 8.22, 8.22, 8.53, 8.85, 9.42, 9.66, 9.94, 9.94, 9.94, 9.94, 9.59, 9.86, 9.3, 9.21, 9.21, 9.1, 9.1, 8.96, 8.96, 8.68, 8.91, 8.91, 9.01, 8.72, 8.3, 8.0, 7.69, 7.21, 6.79, 6.3, 5.99, 5.57, 5.4, 5.31, 5.08, 4.9, 5.09, 6.57, 3.93, 0.0, 0.6, 1.9, 2.4, 2.4, 2.63, 3.07, 3.53, 3.58, 3.58, 3.98, 3.98, 6.17, 6.64, 7.37, 7.2, 6.79, 7.6, 7.12, 6.16, 6.8, 6.07, 5.94, 4.8, 5.81, 6.45, 4.4, -3.16, -5.24, -2.8, -1.84, -4.4, -5.81, -4.92, -4.02, -1.79, -1.2, -0.0, 0.4, 0.95, 2.98, 2.98, 2.21, 1.13, 2.0, 2.76, 2.76, 0.88, -0.0, -0.0, -0.0, 6.7, 6.7, 6.7, 6.98, 7.3, 7.6, 7.6, 7.6, 8.22, 8.22, 8.82, 8.82, 9.08, 9.37, 9.59, 9.94, 9.94, 9.59, 9.59, 9.3, 9.3, 9.21, 9.21, 8.84, 8.93, 8.55, 8.82, 8.68, 10.4, 7.76, 8.15, 8.15, 8.0, 8.22, 7.31, 7.09, 6.6, 6.51, 6.3, 5.81, 5.4, 5.08, 5.08, 5.08, 5.6, 6.51, 5.7, 3.98, 3.2, 3.07, 2.91, 3.07, 3.07, 3.07, 3.53, 3.53, 3.58, 3.58, 3.58, 4.02, 6.64, 7.12, 7.76, 7.47, 8.06, 8.0, 7.15, 7.6, 6.94, 6.51, 4.98, 5.49, 7.67, 7.45, -0.0, -5.37, -4.98, -3.79, -4.98, -5.36, -5.29, -4.38, -4.02, -1.34, -0.45, 0.45, 1.34, 2.24, 4.92, 2.68, -0.0, 0.99, 1.66, 2.76, 1.08, -0.0, -0.0, -0.0, 6.7, 6.7, 6.7, 6.98, 7.3, 7.3, 7.6, 7.6, 7.9, 8.22, 8.5, 8.82, 8.82, 9.08, 9.37, 9.59, 9.59, 9.37, 9.3, 9.3, 8.94, 8.94, 9.21, 8.65, 8.65, 8.55, 8.55, 8.43, 8.43, 10.04, 6.15, 6.51, 7.07, 7.23, 7.48, 7.31, 6.8, 6.6, 6.1, 5.6, 5.6, 5.47, 5.47, 4.84, 5.37, 6.51, 6.94, 6.26, 5.33, 3.98, 3.58, 3.13, 3.13, 3.13, 3.58, 3.53, 3.53, 3.54, 4.02, 4.02, 4.88, 7.12, 8.06, 7.37, 7.85, 7.6, 7.6, 7.15, 8.05, 7.94, 6.82, 7.2, 7.12, 7.55, 4.24, -4.4, -5.73, -5.4, -5.09, -4.92, -4.85, -4.57, -4.38, -3.47, -0.8, 0.0, 1.2, 2.49, 5.36, 3.58, 2.24, -0.0, -0.0, 1.66, 1.83, -0.0, -0.0, -0.0, 6.34, 6.34, 6.7, 6.98, 6.98, 7.3, 7.6, 7.6, 7.9, 8.22, 8.22, 8.5, 8.5, 8.5, 9.37, 9.37, 9.37, 9.37, 9.02, 9.3, 8.94, 8.73, 9.01, 8.65, 8.65, 8.55, 8.55, 8.55, 8.55, 8.68, 6.95, 6.03, 5.59, 6.15, 6.7, 6.95, 6.95, 6.8, 6.28, 5.75, 5.6, 5.47, 5.21, 5.21, 5.21, 5.6, 5.88, 6.16, 5.33, 4.47, 3.58, 3.13, 3.13, 3.13, 3.58, 3.58, 3.53, 3.98, 3.98, 4.02, 7.45, 7.06, 7.06, 7.63, 7.1, 7.15, 7.15, 6.71, 7.6, 7.89, 6.8, 8.0, 7.94, 7.55, 6.64, -0.0, -5.81, -5.81, -5.36, -4.92, -4.47, -4.38, -4.38, -4.02, -2.97, 0.0, 1.24, 2.21, 4.57, 3.58, 1.79, -1.9, -1.2, -0.0, 1.66, 1.08, -0.0, -0.0, 6.34, 6.34, 6.7, 6.98, 6.98, 7.3, 7.3, 7.6, 7.9, 8.22, 8.22, 8.5, 8.5, 8.5, 8.5, 9.37, 9.37, 9.02, 9.02, 9.08, 8.73, 8.73, 8.73, 8.65, 8.65, 8.65, 8.55, 8.55, 8.55, 8.82, 8.51, 7.31, 6.28, 5.49, 5.86, 6.15, 6.15, 6.41, 6.03, 5.75, 5.75, 5.21, 5.21, 5.21, 5.21, 5.21, 5.6, 5.31, 4.6, 4.3, 3.39, 3.09, 3.13, 3.13, 3.58, 3.58, 3.54, 3.98, 3.98, 4.43, 4.34, 7.06, 7.06, 7.63, 7.94, 7.94, 6.94, 6.94, 7.1, 6.94, 6.51, 8.06, 8.38, 7.85, 8.29, 5.73, -3.2, -5.94, -5.73, -4.92, -3.58, -3.47, -3.9, -4.02, -2.97, 0.0, 1.0, 3.79, 4.0, 3.13, 1.79, -3.13, -2.8, -0.0, -0.0, 2.0, 0.98, 0.98, 6.34, 6.34, 6.34, 6.7, 6.98, 6.98, 7.3, 7.6, 7.6, 7.9, 8.22, 8.22, 8.5, 8.5, 8.5, 8.5, 8.78, 8.78, 8.78, 8.45, 8.73, 8.73, 8.38, 8.65, 8.65, 8.65, 8.29, 8.55, 8.55, 8.55, 8.43, 8.51, 7.71, 6.28, 5.49, 5.86, 6.15, 6.15, 6.41, 5.86, 5.75, 5.21, 5.21, 5.21, 5.21, 5.75, 5.21, 5.08, 4.55, 3.88, 3.6, 3.39, 3.53, 3.58, 3.58, 3.58, 3.98, 3.98, 3.98, 4.43, 4.43, 4.34, 7.94, 7.1, 7.85, 8.85, 7.85, 8.0, 8.0, 7.1, 8.05, 6.88, 8.82, 8.33, 8.45, 8.05, 4.4, -2.48, -5.26, -4.47, -3.58, -2.97, -3.47, -3.39, -2.8, 0.0, 1.13, 2.8, 3.13, 2.68, 1.79, -3.13, -3.39, -2.53, -0.0, 0.99, 2.0, 2.0, 6.34, 6.34, 6.34, 6.7, 6.98, 6.98, 7.3, 7.6, 7.6, 7.9, 8.22, 8.22, 8.22, 8.22, 8.5, 8.5, 8.78, 8.78, 8.45, 8.45, 8.73, 8.73, 8.38, 8.38, 8.65, 8.65, 8.29, 8.55, 8.55, 8.55, 8.43, 8.43, 8.15, 7.48, 6.67, 5.86, 5.86, 5.59, 5.59, 5.86, 5.49, 5.21, 5.21, 6.55, 4.71, 5.01, 5.29, 4.65, 4.29, 3.88, 3.6, 3.39, 3.53, 3.58, 3.58, 4.02, 3.98, 3.98, 4.43, 4.3, 4.3, 4.34, 7.6, 7.1, 8.0, 8.85, 8.0, 8.05, 7.6, 7.15, 7.15, 7.1, 8.82, 9.29, 8.05, 7.55, 5.94, 0.0, -5.36, -4.38, -2.98, -2.98, -3.39, -2.97, -2.4, -1.79, 1.34, 1.9, 3.2, 2.8, 2.24, -2.8, -3.82, -2.53, -1.4, -0.0, 0.99, 1.8, 6.08, 6.08, 6.34, 6.34, 6.7, 6.98, 6.98, 7.6, 7.6, 7.6, 8.22, 7.9, 7.9, 7.9, 8.22, 8.5, 8.5, 8.45, 8.45, 8.45, 8.38, 8.38, 8.38, 8.38, 8.65, 8.65, 8.65, 8.29, 8.55, 8.55, 8.18, 8.43, 8.43, 7.76, 7.48, 6.56, 6.03, 5.86, 5.59, 5.59, 5.29, 4.94, 4.94, 6.55, 4.07, 4.45, 4.45, 4.43, 4.11, 4.0, 3.35, 3.6, 3.53, 3.58, 4.02, 4.02, 4.02, 4.43, 4.44, 4.34, 4.3, 4.3, 7.06, 7.1, 7.55, 8.94, 8.49, 7.6, 7.6, 7.15, 7.1, 7.94, 8.49, 8.05, 8.05, 6.45, 3.2, -4.02, -5.36, -4.15, -2.84, -3.35, -2.98, -2.97, -2.0, 1.34, 1.34, 2.24, 2.8, 2.21, -0.0, -3.2, -3.72, -2.84, -1.4, -0.0, -0.0, 0.99, 6.08, 6.08, 6.08, 6.34, 6.7, 6.98, 6.98, 7.3, 7.6, 7.6, 7.6, 7.9, 7.9, 7.9, 7.9, 7.9, 8.45, 8.45, 8.19, 8.15, 8.15, 8.15, 8.15, 8.15, 8.38, 8.65, 8.65, 8.29, 8.29, 8.55, 8.55, 8.18, 8.27, 7.9, 7.76, 7.48, 6.95, 6.41, 5.59, 5.59, 5.01, 5.29, 5.01, 5.75, 6.55, 4.12, 3.45, 3.47, 3.49, 3.48, 3.72, 3.6, 3.98, 4.02, 4.02, 4.02, 4.47, 4.44, 4.44, 4.34, 4.3, 4.19, 4.77, 7.94, 8.05, 8.05, 7.6, 7.6, 7.55, 7.37, 7.54, 7.15, 8.49, 8.49, 8.49, 3.35, -3.72, -6.26, -5.36, -4.0, -3.6, -3.6, -2.98, -2.21, -1.58, 0.0, 1.79, 2.24, 2.68, 1.9, -0.0, -2.53, -4.0, -3.39, -1.9, -0.0, 1.34, -0.0, 6.08, 6.08, 6.08, 6.08, 6.34, 6.7, 6.98, 6.98, 7.6, 7.6, 7.6, 7.6, 7.9, 7.9, 8.19, 8.19, 8.19, 8.19, 8.15, 8.15, 8.15, 8.15, 8.15, 8.15, 8.15, 8.65, 8.65, 8.65, 8.29, 8.55, 8.55, 8.55, 8.0, 8.0, 7.9, 8.15, 7.61, 6.7, 6.15, 5.59, 5.01, 5.01, 5.01, 5.59, 6.41, 6.11, 1.73, 1.07, 2.22, 2.84, 3.35, 3.82, 3.98, 4.02, 4.47, 4.47, 4.47, 4.44, 4.88, 4.77, 4.34, 4.3, 6.64, 7.45, 7.63, 7.63, 7.55, 8.38, 6.94, 7.37, 7.55, 7.6, 8.38, 8.05, 8.05, 4.92, -4.8, -6.64, -5.7, -4.4, -3.6, -3.6, -3.35, -2.21, 0.0, 1.2, 1.9, 2.24, 2.24, -0.0, -0.0, -2.84, -3.72, -3.39, -1.9, -0.0, 2.24, 2.24, 5.7, 5.7, 6.08, 6.08, 6.34, 6.7, 6.7, 6.98, 6.98, 7.3, 7.3, 7.3, 7.59, 7.59, 7.86, 7.86, 7.86, 7.86, 8.15, 8.15, 7.81, 7.81, 8.15, 8.15, 8.15, 8.38, 8.38, 8.65, 8.65, 8.65, 8.93, 8.55, 8.55, 8.0, 8.0, 7.9, 7.9, 7.61, 6.7, 6.15, 5.59, 5.35, 5.35, 5.93, 7.07, 6.51, 2.79, 0.59, 1.13, 2.23, 3.07, 3.53, 3.98, 4.47, 4.47, 4.47, 4.92, 4.88, 4.89, 4.8, 4.77, 4.34, 4.6, 7.63, 7.47, 7.2, 7.6, 7.63, 6.7, 7.37, 8.05, 7.55, 8.82, 7.37, 8.49, 6.71, 1.79, -5.36, -5.94, -5.4, -4.38, -3.9, -2.98, -0.99, 0.0, 1.6, 1.9, 2.24, 2.24, -0.0, -0.0, -1.08, -2.23, -3.2, -0.0, 2.24, 2.24, 2.24, 5.7, 5.7, 5.7, 6.08, 6.08, 6.34, 6.7, 6.98, 6.98, 6.98, 7.3, 7.59, 7.59, 7.59, 7.59, 7.86, 7.86, 8.15, 8.15, 7.81, 7.81, 7.81, 8.15, 7.86, 7.86, 8.15, 8.38, 8.38, 8.65, 8.65, 8.65, 8.65, 8.55, 8.55, 8.0, 8.0, 8.0, 7.72, 7.35, 6.44, 6.15, 5.59, 5.59, 5.93, 6.7, 7.31, 6.3, 4.0, 2.84, 2.79, 3.82, 3.98, 4.47, 4.47, 4.92, 4.92, 4.92, 4.89, 5.33, 5.24, 5.24, 4.8, 4.77, 7.06, 7.06, 6.9, 7.6, 7.6, 6.7, 7.37, 7.6, 8.0, 7.85, 8.29, 8.0, 8.05, 7.12, 4.8, -2.68, -4.98, -4.98, -3.9, -2.98, -0.99, 0.0, 1.2, 1.9, 2.24, 1.79, -0.0, -1.27, -0.0, -0.0, -2.68, 1.79, 1.79, 1.79, 1.79, 5.7, 5.7, 5.7, 6.08, 6.08, 6.34, 6.63, 6.98, 6.69, 6.69, 6.97, 7.27, 7.27, 7.59, 7.59, 7.59, 7.59, 7.55, 7.55, 7.55, 7.55, 7.55, 7.86, 7.86, 7.86, 8.19, 8.19, 8.15, 8.38, 8.38, 8.65, 8.65, 8.65, 8.29, 8.37, 8.0, 8.0, 8.0, 7.72, 7.15, 6.23, 6.15, 5.93, 5.93, 6.15, 6.95, 7.31, 6.6, 5.81, 5.51, 5.24, 4.89, 4.89, 4.92, 4.92, 5.36, 5.36, 5.33, 5.33, 5.26, 5.7, 5.26, 5.24, 4.8, 7.63, 7.2, 8.06, 7.12, 7.12, 7.1, 8.49, 7.37, 7.85, 8.29, 8.49, 8.0, 8.06, 8.17, 7.12, 3.58, -3.72, -4.57, -2.98, -2.21, 0.0, 0.0, 0.0, 2.24, 1.79, -1.4, -2.0, -0.0, -0.0, 2.24, 2.24, 2.24, 2.24, 2.24, 5.7, 5.7, 5.98, 5.98, 6.08, 6.35, 6.35, 6.69, 6.69, 6.97, 6.97, 6.97, 7.27, 7.27, 7.27, 7.27, 7.55, 7.55, 7.55, 7.55, 7.55, 7.59, 7.59, 7.86, 8.19, 8.19, 8.19, 8.19, 7.86, 8.38, 8.38, 8.65, 8.65, 8.65, 8.29, 8.08, 8.08, 8.0, 8.0, 7.44, 7.15, 6.23, 6.23, 5.88, 6.15, 6.51, 6.95, 7.31, 7.01, 6.79, 6.04, 5.7, 5.78, 5.34, 5.34, 5.36, 5.36, 5.78, 5.78, 5.7, 5.7, 5.7, 5.7, 5.24, 5.24, 8.38, 8.38, 7.54, 7.6, 7.6, 7.55, 7.42, 8.0, 8.05, 8.49, 8.45, 8.33, 8.33, 8.06, 7.63, 4.47, -2.84, -4.4, -3.39, -1.9, 0.0, 0.0, 0.0, 2.24, -0.0, -0.0, 1.9, 2.24, 2.24, 2.24, 2.24, 2.24, 2.24, 5.46, 5.46, 5.72, 5.98, 5.98, 6.35, 6.35, 6.35, 6.97, 6.97, 6.97, 6.97, 6.97, 7.27, 7.27, 7.27, 7.55, 7.55, 7.55, 7.55, 7.27, 7.59, 7.59, 8.19, 8.19, 8.19, 8.19, 8.19, 8.19, 8.19, 8.19, 8.73, 8.73, 8.65, 8.65, 8.29, 8.08, 8.08, 8.0, 7.44, 7.44, 6.52, 6.57, 6.23, 6.23, 6.15, 6.41, 6.56, 6.8, 6.6, 6.3, 6.04, 5.7, 5.7, 5.78, 5.81, 5.81, 5.78, 5.78, 5.7, 5.7, 6.14, 5.7, 5.7, 5.24, 8.38, 8.05, 8.05, 8.05, 7.6, 8.0, 8.05, 8.05, 8.49, 8.49, 8.45, 8.45, 8.44, 8.0, 7.85, 7.37, 2.21, -4.98, -3.9, -2.8, -1.2, 0.0, 0.0, -2.24, -0.0, 2.21, 2.21, -0.0, -0.0, 2.24, 1.79, 1.79, 1.79, 5.72, 5.72, 5.72, 5.72, 5.72, 6.35, 6.35, 6.35, 6.64, 6.97, 6.97, 6.97, 6.97, 6.97, 6.97, 7.27, 7.55, 7.55, 7.55, 7.55, 7.55, 7.59, 7.3, 7.9, 7.9, 7.9, 8.19, 8.19, 8.19, 8.19, 8.19, 8.19, 8.73, 8.73, 8.38, 8.38, 8.08, 8.08, 7.73, 7.51, 7.44, 6.87, 6.52, 6.57, 6.23, 6.51, 6.15, 6.41, 6.28, 6.51, 6.1, 5.88, 5.99, 5.7, 5.78, 5.81, 5.81, 5.79, 6.23, 6.23, 6.23, 6.23, 6.23, 5.78, 5.24, 7.94, 7.94, 7.94, 8.05, 8.05, 8.49, 8.49, 8.49, 8.49, 8.49, 8.49, 8.05, 8.05, 7.55, 7.55, 8.44, 5.36, -2.48, -4.57, -3.39, -2.4, -1.2, -1.58, -1.79, 1.79, 2.21, 1.6, 1.27, 1.6, 1.9, 2.24, 2.24, 2.24, 5.72, 5.72, 5.72, 5.72, 5.72, 5.72, 6.08, 6.08, 6.35, 6.35, 6.67, 6.67, 6.67, 6.97, 6.97, 7.27, 7.27, 7.27, 7.27, 7.27, 7.27, 7.3, 7.6, 7.6, 7.9, 7.9, 7.9, 7.9, 8.19, 8.19, 8.19, 8.19, 8.19, 8.45, 8.73, 8.38, 8.15, 7.81, 8.08, 7.73, 7.51, 7.17, 6.87, 6.52, 6.57, 6.23, 6.51, 6.41, 6.03, 6.28, 6.1, 6.3, 6.04, 5.99, 5.78, 5.81, 5.81, 6.26, 6.26, 6.23, 6.23, 6.23, 6.23, 5.78, 5.33, 7.1, 7.37, 7.63, 7.85, 8.0, 8.94, 8.77, 8.49, 8.49, 8.05, 8.05, 7.6, 7.6, 7.54, 7.54, 8.0, 7.6, 2.84, -4.29, -4.38, -3.13, -1.58, -1.58, 0.0, 1.79, 1.34, -0.0, 1.6, 2.53, 2.21, -0.0, -0.0, -0.0, 5.32, 5.32, 5.72, 5.72, 5.72, 5.72, 6.08, 6.35, 6.35, 6.35, 6.35, 6.67, 6.67, 6.97, 6.97, 6.97, 7.27, 7.27, 7.27, 7.27, 7.59, 7.6, 7.6, 7.6, 7.9, 7.9, 7.9, 7.9, 7.9, 7.9, 7.9, 7.9, 7.9, 8.19, 8.19, 8.19, 8.15, 8.15, 7.81, 8.08, 7.51, 7.51, 6.92, 6.87, 6.52, 6.57, 6.23, 6.15, 6.41, 6.28, 6.51, 6.1, 5.88, 6.16, 5.81, 5.81, 5.81, 6.26, 6.26, 6.26, 6.26, 6.23, 6.23, 5.79, 5.36, 6.65, 6.94, 7.12, 7.37, 7.55, 8.05, 8.29, 8.3, 8.77, 8.44, 8.05, 7.6, 7.6, 7.54, 7.54, 7.55, 8.05, 5.7, -2.84, -5.81, -2.24, -1.58, 0.0, 0.0, 1.79, -1.79, 1.79, 1.79, 2.21, 2.21, -0.0, -0.0, -0.0, 5.32, 5.08, 5.08, 5.46, 5.72, 5.72, 6.0, 6.35, 6.35, 6.35, 6.35, 6.67, 6.97, 6.97, 6.97, 6.97, 6.97, 7.27, 7.27, 7.27, 7.59, 7.3, 7.6, 7.6, 7.9, 7.9, 7.9, 7.9, 7.9, 7.9, 7.9, 7.9, 7.9, 7.9, 8.19, 8.19, 8.19, 8.15, 8.15, 7.81, 7.85, 7.51, 7.17, 7.21, 6.87, 6.79, 6.23, 6.51, 6.41, 6.28, 6.28, 6.1, 6.3, 6.23, 6.23, 6.26, 6.26, 6.26, 6.26, 6.26, 6.26, 6.26, 6.26, 6.26, 5.81, 4.92, 6.71, 6.64, 6.45, 6.94, 7.1, 7.15, 7.53, 7.2, 8.48, 7.85, 7.6, 7.6, 7.6, 7.6, 7.6, 8.05, 6.26, -2.68, -4.02, -1.58, 0.0, 0.0, 1.34, -0.0, -1.58, 1.79, 2.24, 2.24, -0.0, -0.0, -0.0, -0.0, 5.08, 5.08, 5.08, 5.08, 5.46, 5.72, 5.72, 6.0, 6.35, 6.35, 6.35, 6.35, 6.97, 6.97, 6.97, 6.97, 6.97, 6.97, 7.27, 7.27, 7.59, 7.3, 7.6, 7.6, 7.9, 7.9, 7.9, 7.9, 7.9, 7.9, 7.9, 7.9, 7.9, 7.9, 7.9, 8.19, 8.19, 7.86, 8.15, 7.81, 7.81, 7.51, 7.51, 7.17, 6.87, 6.87, 6.79, 6.51, 6.15, 6.41, 6.28, 6.1, 6.3, 6.16, 6.23, 6.23, 6.23, 6.68, 6.71, 6.71, 6.26, 6.26, 6.71, 6.71, 5.81, 4.92, 6.71, 6.71, 6.64, 6.94, 6.94, 7.1, 6.71, 6.02, 7.2, 7.53, 7.54, 7.6, 8.05, 7.6, 7.6, 8.05, 6.26, -6.26, -4.02, -2.4, -1.58, 0.0, 1.34, -0.0, -0.0, -0.0, -0.0, -0.0, -1.6, -1.27, -1.27, -1.27, 5.08, 5.08, 5.08, 5.08, 5.72, 5.72, 5.72, 6.0, 6.35, 6.08, 6.35, 6.64, 6.97, 6.97, 6.97, 6.97, 6.97, 6.97, 6.97, 7.27, 7.59, 7.3, 7.6, 7.6, 7.9, 7.9, 7.9, 7.9, 7.9, 7.9, 7.9, 7.9, 7.9, 7.6, 7.6, 7.9, 8.19, 8.19, 7.86, 8.15, 7.81, 8.08, 7.51, 7.44, 7.44, 6.87, 6.79, 7.07, 6.7, 6.56, 6.28, 6.51, 6.47, 6.6, 6.6, 6.6, 6.68, 6.68, 6.68, 6.68, 6.68, 6.26, 6.71, 6.71, 6.23, 5.34, 4.44, 4.02, 7.15, 7.1, 7.15, 7.1, 6.94, 6.88, 6.57, 7.15, 7.6, 8.05, 8.05, 8.0, 7.54, 8.0, -3.13, -6.71, -4.38, -2.21, -1.2, -1.58, 1.79, -0.0, -0.0, -0.0, -0.0, -1.6, -1.27, -1.27, -1.27, -1.27, 5.08, 5.08, 5.08, 5.08, 5.34, 5.72, 5.72, 6.0, 6.08, 6.08, 6.08, 6.64, 6.64, 6.97, 6.97, 6.97, 6.97, 6.97, 6.97, 6.97, 7.59, 7.3, 7.6, 7.6, 7.6, 7.9, 7.9, 7.9, 7.9, 7.9, 7.9, 7.9, 7.9, 7.6, 7.59, 7.59, 7.59, 7.86, 7.86, 8.15, 8.15, 8.08, 7.73, 7.8, 7.44, 7.44, 7.35, 6.79, 7.07, 6.95, 6.8, 6.6, 6.94, 6.94, 6.94, 6.61, 6.61, 6.61, 7.13, 7.13, 6.68, 6.68, 6.68, 6.68, 6.68, 6.16, 4.8, 4.44, 7.15, 7.6, 7.6, 8.05, 7.85, 8.06, 8.06, 7.63, 7.54, 8.05, 8.05, 7.54, 7.54, 7.6, 0.0, -6.17, -5.73, -4.24, -3.2, -3.13, -2.24, -2.24, -1.58, -1.2, -0.0, -1.6, -2.53, -1.4, -1.4, -1.4, 4.44, 4.44, 5.08, 5.08, 5.34, 5.72, 5.46, 5.72, 5.72, 6.08, 6.08, 6.08, 6.35, 6.35, 6.35, 6.97, 6.97, 6.97, 6.97, 6.97, 7.28, 7.3, 7.3, 7.6, 7.9, 7.9, 7.9, 7.9, 7.9, 7.9, 7.9, 7.9, 7.9, 7.59, 7.59, 7.59, 7.59, 7.86, 7.86, 8.15, 8.15, 8.08, 8.08, 8.0, 7.44, 7.44, 7.72, 7.61, 7.23, 7.08, 7.2, 7.01, 7.21, 7.4, 6.94, 7.06, 6.61, 7.06, 7.06, 7.06, 7.13, 6.68, 6.68, 7.06, 7.06, 6.16, 5.09, 4.6, 4.8, 7.55, 8.05, 8.05, 8.05, 8.29, 8.29, 8.44, 8.05, 7.6, 7.6, 7.6, 7.15, 7.6, 4.47, -4.24, -6.2, -4.92, -3.13, -2.68, -2.68, -2.24, -1.58, -1.58, -1.58, -2.21, -2.53, -2.53, -2.53, -2.53, 4.44, 4.44, 4.83, 5.08, 5.08, 5.46, 5.46, 5.72, 5.72, 6.08, 6.08, 6.08, 6.35, 6.35, 6.35, 6.35, 6.67, 6.97, 6.97, 6.97, 6.98, 7.3, 7.3, 7.6, 7.6, 7.9, 7.9, 7.9, 7.9, 7.9, 7.9, 8.19, 7.86, 7.59, 7.59, 7.27, 7.27, 7.55, 8.15, 8.15, 8.15, 8.44, 8.08, 8.37, 8.0, 8.0, 7.9, 7.76, 7.61, 7.48, 7.31, 7.51, 7.69, 7.26, 7.4, 6.97, 7.06, 7.06, 7.07, 7.07, 7.06, 6.61, 7.06, 7.06, 6.94, 6.51, 5.57, 4.9, 4.9, 7.37, 8.0, 8.0, 7.6, 7.55, 7.85, 8.0, 7.6, 8.05, 7.55, 7.6, 7.1, 7.37, 7.1, 2.24, -5.81, -5.73, -3.47, -3.13, -2.68, -2.68, -2.24, -1.79, -1.58, -2.8, -3.2, -2.53, -2.53, -2.53, 4.44, 4.44, 4.44, 5.08, 5.08, 5.08, 5.46, 5.72, 5.72, 5.72, 6.08, 6.35, 6.35, 6.35, 6.35, 6.35, 6.35, 6.67, 6.97, 6.97, 6.69, 6.98, 7.3, 7.6, 7.6, 7.9, 7.9, 7.9, 7.9, 8.19, 8.19, 8.19, 7.86, 7.59, 7.59, 7.27, 7.55, 7.55, 7.81, 8.15, 8.15, 8.65, 8.29, 8.55, 8.37, 8.27, 8.27, 8.15, 7.76, 8.0, 7.81, 8.0, 7.74, 7.74, 7.4, 7.4, 6.94, 6.94, 6.97, 6.97, 7.06, 7.06, 7.06, 7.4, 7.4, 6.79, 5.81, 5.31, 5.08, 7.53, 7.85, 7.55, 7.15, 7.1, 7.1, 7.54, 7.54, 7.6, 7.6, 7.6, 7.54, 7.85, 7.85, 4.24, -4.92, -5.94, -4.4, -3.39, -3.13, -2.68, -2.24, -1.79, -1.58, -3.2, -3.2, -2.53, -2.53, -2.53, 4.44, 4.44, 4.44, 5.08, 5.08, 5.08, 5.46, 5.72, 5.72, 5.72, 5.72, 6.35, 6.35, 6.35, 6.35, 6.35, 6.35, 6.35, 6.97, 6.97, 6.69, 6.98, 7.3, 7.3, 7.6, 7.9, 7.9, 7.9, 8.19, 8.19, 8.19, 7.86, 7.86, 7.86, 7.59, 7.55, 7.55, 7.55, 7.55, 7.81, 8.08, 8.65, 8.65, 8.55, 8.55, 8.82, 8.43, 8.68, 8.51, 8.0, 8.22, 8.0, 8.0, 7.74, 7.69, 7.26, 7.26, 7.37, 7.4, 7.4, 6.94, 6.94, 7.4, 7.4, 7.26, 6.79, 6.3, 5.6, 5.21, 6.0, 6.51, 8.45, 7.6, 7.1, 7.1, 7.54, 8.0, 8.0, 7.55, 8.0, 8.0, 8.0, 8.0, 5.26, -4.02, -5.94, -5.4, -3.6, -2.98, -2.4, -2.24, -2.24, -1.9, -2.53, -3.2, -3.2, -3.2, -3.2, 4.44, 4.44, 4.44, 5.08, 5.08, 5.08, 5.46, 5.72, 5.72, 5.72, 6.0, 6.0, 6.35, 6.35, 6.35, 6.35, 6.35, 6.35, 6.35, 6.35, 6.69, 6.98, 7.3, 7.3, 7.6, 7.9, 8.19, 8.19, 8.19, 8.19, 8.19, 7.86, 7.86, 7.86, 7.59, 7.55, 7.55, 7.55, 7.55, 8.08, 8.08, 8.29, 8.55, 8.55, 8.55, 8.82, 8.43, 8.68, 8.91, 8.51, 8.72, 8.42, 8.0, 8.0, 7.51, 7.69, 7.26, 7.21, 7.21, 7.37, 6.94, 6.94, 7.4, 7.69, 7.69, 7.21, 6.1, 6.0, 5.37, 5.75, 6.51, 8.77, 8.05, 8.38, 7.1, 7.54, 7.55, 8.0, 7.6, 7.6, 8.05, 8.05, 8.05, 5.81, -3.13, -5.94, -4.98, -4.29, -3.16, -2.53, -2.21, -2.68, -2.68, -2.4, -2.4, -2.68, -2.68, -2.68, 4.44, 4.44, 4.44, 5.08, 5.08, 5.08, 5.08, 5.46, 5.72, 5.72, 6.0, 5.72, 5.72, 5.72, 6.06, 6.35, 6.35, 6.35, 6.35, 6.35, 6.69, 6.98, 6.98, 7.3, 7.59, 7.9, 8.19, 8.19, 8.19, 8.19, 8.19, 7.86, 7.86, 7.86, 8.15, 7.55, 7.55, 7.55, 7.55, 8.08, 8.08, 8.08, 8.55, 8.55, 8.55, 8.82, 8.82, 8.68, 8.68, 8.91, 8.3, 8.22, 8.0, 8.0, 7.51, 7.51, 7.26, 7.21, 7.21, 7.21, 7.21, 7.26, 7.69, 7.58, 7.51, 7.01, 6.6, 6.1, 5.75, 5.75, 5.75, 6.3, 6.68, 8.94, 7.15, 7.15, 7.6, 8.05, 7.6, 7.6, 7.6, 7.6, 7.6, 6.71, 2.24, -5.4, -5.37, -4.11, -3.79, -3.48, -3.16, -3.82, -2.97, -3.13, -3.13, -3.58, -3.58, -3.58, 4.44, 4.44, 4.44, 5.08, 5.08, 5.08, 5.08, 5.46, 5.72, 5.72, 6.0, 5.72, 5.72, 5.72, 6.06, 6.35, 6.35, 6.35, 6.35, 6.35, 6.69, 6.98, 6.98, 7.3, 7.59, 7.9, 8.19, 8.19, 8.19, 8.19, 8.19, 7.86, 7.86, 7.86, 8.15, 7.55, 7.55, 7.55, 7.55, 8.08, 8.08, 8.08, 8.55, 8.55, 8.55, 8.82, 8.82, 8.68, 8.68, 8.91, 8.3, 8.22, 8.0, 8.0, 7.51, 7.51, 7.26, 7.21, 7.21, 7.21, 7.21, 7.26, 7.69, 7.58, 7.51, 7.01, 6.6, 6.1, 5.75, 5.75, 5.75, 6.3, 6.68, 8.94, 7.15, 7.15, 7.6, 8.05, 7.6, 7.6, 7.6, 7.6, 7.6, 7.15, 4.02, -3.82, -5.6, -4.98, -4.65, -4.29, -4.4, -4.0, -4.24, -4.02, -4.02, -4.02, -4.02, -4.02]}, {"header": {"dx": 0.06612293990616946, "dy": 0.0552356325346848, "nx": 98, "ny": 59, "la1": 35.046912555036876, "la2": 31.78801023549047, "lo1": -121.43107172385933, "lo2": -114.95102361305473, "refTime": "2026040721", "parameterCategory": 1, "parameterNumber": 3}, "data": [-9.13, -9.13, -8.85, -8.56, -8.24, -8.24, -7.6, -7.6, -7.22, -6.29, -6.06, -5.02, -4.17, -2.6, -1.76, -0.85, -0.98, -0.99, -5.06, -7.15, -6.94, -6.4, -5.6, -4.89, -4.54, -4.89, -4.43, -4.43, -4.89, -4.89, -4.98, -4.98, -5.26, -5.36, -5.26, -5.51, -5.6, -5.58, -5.58, -4.74, -3.9, -3.99, -5.21, -6.24, -6.16, -6.45, -7.38, -7.51, -6.7, -6.0, -4.07, -2.7, -1.75, 0.0, 0.0, 2.48, 2.48, 1.19, 1.19, 1.08, 1.08, 1.27, 1.4, 1.4, 1.13, 1.27, 1.27, 1.27, 1.27, 1.6, 1.9, 2.24, 2.68, 1.9, 0.0, 0.0, -2.68, -2.24, -3.13, -3.58, -3.58, -4.02, -3.82, -3.35, -2.53, -0.87, 0.0, 0.0, 0.0, 3.48, 5.81, 6.71, 6.26, 6.26, 5.73, 5.7, 5.36, 5.26, -9.13, -9.13, -8.85, -8.56, -8.56, -8.24, -7.96, -7.6, -7.22, -6.96, -6.33, -6.33, -5.0, -3.69, -3.39, -2.39, -1.75, -1.28, -2.69, -5.94, -7.6, -6.94, -6.4, -6.4, -4.89, -4.89, -4.89, -5.24, -5.58, -5.58, -6.0, -5.94, -6.17, -5.81, -6.17, -5.94, -6.57, -6.57, -6.21, -6.18, -5.69, -6.95, -7.9, -8.22, -8.85, -8.3, -8.12, -7.48, -6.7, -5.06, -4.2, -2.57, -1.67, -0.79, 0.0, 1.19, 1.19, 1.19, 0.96, 0.96, 0.0, 0.0, 0.0, 0.0, 0.0, 0.0, 0.0, 0.0, 1.27, 1.13, 1.4, 0.0, 0.0, 0.0, 0.0, -1.9, -2.8, -2.24, -3.13, -3.58, -3.58, -4.02, -3.82, -3.35, -2.53, -0.87, 0.0, 0.0, 0.0, 3.48, 5.81, 6.71, 6.26, 6.26, 5.73, 5.7, 5.36, 5.26, -9.13, -9.13, -9.13, -8.56, -8.87, -8.87, -7.96, -7.6, -7.22, -6.96, -6.34, -5.34, -5.0, -4.13, -3.78, -2.59, -2.59, -2.59, -2.83, -5.1, -6.26, -7.45, -7.45, -6.8, -6.08, -4.89, -4.89, -5.21, -5.58, -6.21, -7.12, -7.12, -6.88, -7.15, -6.26, -7.45, -6.57, -7.12, -7.2, -7.42, -8.06, -8.93, -10.63, -11.25, -10.58, -9.26, -7.59, -6.18, -5.89, -5.36, -4.34, -3.45, -1.84, -0.89, 0.0, 0.0, 0.0, 1.05, 1.05, 0.0, 0.0, 0.0, 0.0, 0.0, 0.0, 0.0, 0.0, 0.0, 0.0, 0.0, 0.0, 0.0, -1.9, -1.9, 0.0, -1.4, -3.2, -3.58, -3.13, -3.58, -4.02, -4.02, -3.82, -3.82, -2.98, -1.98, -1.66, -0.96, 1.08, 4.82, 6.26, 6.26, 6.26, 5.73, 5.4, 4.8, 4.77, 4.47, -9.42, -9.13, -9.13, -8.85, -8.87, -8.87, -8.24, -7.96, -7.6, -6.96, -6.34, -6.35, -6.0, -4.4, -4.07, -4.25, -4.25, -4.44, -4.13, -3.49, -5.95, -7.6, -7.45, -6.16, -5.95, -6.44, -5.58, -6.0, -6.45, -6.94, -7.85, -8.14, -8.29, -8.38, -8.05, -7.89, -8.48, -9.04, -9.36, -10.4, -11.28, -12.26, -12.26, -11.28, -10.01, -8.31, -6.18, -4.68, -4.42, -4.42, -4.03, -3.6, -2.54, -0.89, -0.89, 0.0, 0.0, 0.0, 0.0, 0.0, 0.0, 0.0, 0.0, -1.27, -1.27, -1.27, -1.08, -0.87, -0.98, -1.8, -2.2, -3.72, -3.39, -2.68, -1.9, -1.6, -1.6, -3.13, -3.82, -3.58, -2.68, -3.39, -3.82, -3.82, -3.35, -2.95, -2.76, -1.19, 3.82, 6.26, 6.26, 5.81, 5.81, 5.73, 4.98, 3.22, 4.09, 4.02, -9.42, -9.13, -9.13, -9.13, -8.56, -8.87, -8.58, -8.24, -7.6, -6.96, -6.7, -6.35, -6.15, -4.6, -4.07, -4.25, -4.6, -5.14, -5.14, -5.14, -5.46, -7.89, -7.6, -7.47, -6.99, -7.28, -7.89, -7.47, -8.38, -7.54, -8.49, -8.9, -9.24, -8.77, -9.39, -9.83, -10.2, -10.46, -12.04, -13.64, -13.43, -11.9, -10.28, -9.34, -8.31, -6.95, -5.36, -3.6, -2.82, -3.55, -3.55, -3.55, -2.67, -1.84, -0.94, 0.0, 0.0, 0.0, 0.0, 0.0, 0.0, 0.0, 0.0, -1.08, -1.08, -1.08, -1.08, -1.08, -2.2, -3.22, -4.11, -4.98, -4.47, -4.47, -4.02, -2.21, -1.6, -3.13, -3.82, -2.97, -2.97, -2.84, -3.35, -3.82, -3.72, -2.2, -1.19, 2.84, 5.81, 6.26, 6.26, 5.73, 5.73, 5.4, 4.11, 2.99, 2.48, 4.02, -9.42, -9.13, -9.13, -9.13, -8.56, -8.87, -8.87, -8.24, -7.96, -7.33, -6.7, -5.72, -5.9, -4.6, -3.82, -4.25, -4.92, -5.35, -6.57, -6.84, -6.59, -7.53, -8.94, -8.82, -8.38, -7.89, -8.06, -8.38, -8.82, -9.39, -8.49, -8.9, -9.35, -8.94, -8.05, -8.94, -9.35, -9.75, -12.04, -13.91, -12.98, -11.6, -9.04, -7.9, -7.13, -6.04, -4.56, -2.69, -1.75, -1.73, -1.84, -1.84, -1.84, -1.84, -1.01, 0.0, 0.0, 0.0, 0.0, -0.88, -0.96, -1.08, 0.0, -1.08, -1.19, -1.19, -2.0, -1.08, -1.05, -1.99, -3.48, -5.26, -5.81, -5.81, -4.92, -4.47, -3.2, -2.8, -3.58, -3.82, -4.02, -2.84, -2.84, -2.53, -1.27, 0.0, 2.2, 5.4, 6.26, 6.26, 6.26, 6.17, 4.98, 4.11, 3.22, 2.16, 2.23, 3.58, -9.42, -9.42, -9.13, -9.13, -8.85, -8.87, -8.87, -8.87, -7.96, -7.33, -6.35, -5.71, -5.64, -4.92, -4.54, -4.25, -4.13, -5.57, -6.45, -6.97, -6.87, -6.83, -6.94, -7.98, -8.82, -8.49, -8.38, -8.82, -8.85, -8.44, -9.83, -8.77, -7.82, -7.2, -7.42, -8.49, -8.9, -9.46, -11.35, -12.27, -13.19, -11.35, -11.03, -9.48, -7.59, -6.18, -5.21, -4.34, -2.69, -1.4, -1.4, -0.96, -0.96, -1.03, -1.03, 0.0, 0.0, 0.0, 0.0, -0.96, -0.96, 0.0, -1.19, -1.19, 0.0, -1.19, -1.08, -2.0, -1.19, 0.0, 0.0, -2.68, -3.82, -4.34, -4.77, -4.34, -4.02, -4.02, -4.02, -3.82, -4.02, -3.2, 0.0, 0.0, 2.84, 3.58, 5.37, 6.36, 6.17, 6.17, 5.75, 5.09, 4.89, 3.22, 1.98, 0.96, 1.8, 3.58, -9.08, -9.42, -9.13, -9.13, -9.46, -9.17, -8.87, -8.87, -8.24, -7.61, -6.67, -6.28, -6.48, -6.15, -5.64, -5.18, -5.3, -5.72, -5.4, -6.7, -5.72, -4.58, -4.25, -5.84, -6.64, -7.15, -7.6, -8.38, -8.82, -9.29, -9.83, -10.65, -10.46, -9.32, -7.21, -6.71, -4.47, -2.8, -7.15, -11.62, -11.55, -10.84, -10.41, -9.04, -8.0, -6.98, -5.53, -5.1, -4.5, -3.8, -1.98, -0.96, -1.05, -1.05, -0.88, 0.0, -0.96, -1.03, -0.96, 0.0, 0.0, 0.0, 0.0, 0.0, 0.0, 0.0, 0.0, 0.0, 0.0, 1.41, 3.35, 4.02, 2.53, 1.6, -0.0, -2.4, -4.02, -4.47, -4.02, -2.84, -1.13, 0.0, 1.58, 2.98, 4.15, 4.57, 5.09, 5.4, 5.73, 5.73, 5.29, 4.22, 4.11, 1.98, 0.89, 0.0, 1.8, 4.02, -9.08, -9.42, -9.13, -9.13, -9.46, -9.17, -9.17, -8.87, -8.56, -7.93, -7.55, -7.44, -10.01, -9.08, -8.22, -8.22, -8.07, -7.51, -6.56, -6.48, -6.4, -5.86, -4.33, -3.53, -0.89, 0.0, 0.0, -5.36, -8.49, -9.83, -10.28, -10.91, -9.04, -6.44, -3.22, -2.8, 3.48, 6.07, 3.16, -6.4, -9.39, -9.29, -9.03, -8.06, -6.8, -4.89, -4.56, -2.82, -2.82, -2.82, -2.66, -1.99, -1.99, -1.99, -1.05, -1.84, -1.84, -0.96, -0.96, -0.96, -0.88, -1.05, -0.96, 0.0, 0.0, 0.0, 0.0, 0.0, 1.41, 2.48, 2.84, 3.58, 4.34, 3.6, 2.4, 0.0, -2.68, -3.58, -2.53, -1.98, -1.41, -0.0, 1.79, 2.68, 3.47, 3.9, 4.0, 4.4, 4.82, 4.57, 4.15, 3.58, 2.53, 1.98, 1.98, 1.14, 3.48, 4.92, -9.08, -9.42, -9.42, -9.13, -9.13, -9.17, -9.17, -8.87, -8.56, -8.53, -8.19, -9.02, -8.45, -8.08, -10.12, -10.18, -10.79, -10.37, -9.76, -8.49, -6.58, -5.1, -2.49, 0.0, 4.14, 4.14, 3.2, 1.52, -3.47, -7.89, -8.05, -5.36, 0.0, 4.11, 3.72, 4.11, 5.81, 6.2, 6.71, 4.47, 0.0, -3.35, -3.22, -2.16, -0.96, 0.0, 0.95, 0.89, 0.0, 0.0, -0.89, -1.84, -3.22, -2.99, -2.99, -2.99, -2.8, -2.8, -2.8, -1.84, -2.16, -1.99, -1.84, -1.27, -1.08, -0.96, 0.0, 0.0, 0.0, 1.08, 1.6, 2.24, 2.68, 2.24, 1.79, 1.58, 0.0, 0.0, -0.0, -0.99, -1.98, -2.53, -0.0, 0.0, 1.79, 1.58, 2.4, 2.97, 3.39, 2.98, 2.53, 2.41, 3.22, 3.22, 2.8, 2.99, 4.11, 5.37, -9.08, -9.08, -9.42, -9.13, -9.13, -9.46, -9.17, -9.17, -9.17, -8.85, -8.82, -10.01, -9.17, -8.56, -9.02, -9.34, -9.76, -6.03, -5.13, -2.58, -0.98, 0.0, 2.48, 4.98, 6.07, 5.09, 4.4, 4.4, 3.79, 0.0, 0.0, 4.92, 6.26, 5.4, 4.6, 5.21, 6.0, 7.06, 5.95, 5.37, 4.58, 2.64, 1.84, 1.32, 2.54, 2.82, 2.67, 1.84, 0.84, 0.0, -0.84, -1.84, -3.72, -4.74, -4.74, -4.74, -4.58, -5.06, -4.74, -3.91, -3.91, -4.11, -3.48, -2.48, -2.48, -2.2, -2.2, -1.08, -1.08, 0.0, 0.0, 0.0, 0.0, -1.79, -2.24, -1.58, 0.0, 0.0, 2.68, -0.0, -1.9, -2.98, -3.47, -2.4, -1.79, 0.0, 0.0, 0.0, 0.0, 1.58, 2.21, 2.23, 3.48, 3.63, 2.8, 3.91, 5.24, 5.58, -9.08, -9.08, -9.42, -9.13, -9.13, -9.46, -9.17, -9.17, -9.17, -9.13, -9.13, -9.72, -9.77, -8.87, -7.16, -5.62, -4.42, -3.83, -3.22, -0.54, 1.2, 2.53, 2.68, 5.6, 5.6, 4.84, 3.22, 1.26, 4.34, 5.36, 5.6, 6.36, 5.81, 3.93, 3.93, 4.54, 4.74, 5.69, 5.24, 4.5, 4.26, 3.6, 2.67, 1.25, 1.4, 0.96, 1.4, 0.0, 0.0, -1.58, -2.82, -3.77, -4.58, -5.49, -6.6, -6.55, -6.6, -5.95, -5.95, -4.89, -3.48, -2.48, -3.16, -3.93, -4.29, -3.49, -4.11, -3.79, -4.29, -3.48, -2.53, -2.6, -2.97, -3.82, -4.02, -3.58, -3.13, 0.0, 1.79, 2.24, 0.0, -2.68, -3.58, -4.34, -3.47, -3.13, -2.68, -2.24, -1.26, 0.0, 0.0, 1.9, 2.84, 3.22, 3.22, 3.91, 4.74, 5.06, -9.37, -9.08, -9.42, -9.13, -9.13, -9.46, -9.46, -9.17, -9.17, -9.17, -9.17, -9.17, -9.77, -9.82, -8.57, -6.82, -4.55, -2.8, -2.23, -1.09, 0.0, 0.63, 2.23, 2.22, 1.73, 1.19, 1.08, 1.11, 1.61, 1.86, 4.34, 4.89, 4.89, 4.11, 4.54, 4.74, 4.74, 4.42, 4.42, 3.6, 2.83, 1.73, 0.89, 0.0, 0.0, 0.0, 1.84, 0.0, 0.0, -2.66, -3.47, -5.06, -5.15, -3.63, -4.74, -3.47, -5.58, -7.45, -5.81, -1.9, 4.02, 3.72, 1.27, -2.2, -3.63, -3.91, -4.43, -4.89, -5.94, -5.51, -5.26, -5.26, -5.26, -4.82, -4.47, -4.02, -3.82, -2.8, -1.58, 0.0, 0.0, 0.0, 0.0, 0.0, -4.47, -4.47, -3.9, -2.97, -2.24, -1.79, 0.0, 0.0, 0.0, 1.08, 1.99, 3.91, 4.19, 4.29, -9.37, -9.08, -9.42, -9.42, -9.13, -9.13, -9.46, -9.46, -9.17, -9.17, -9.17, -9.48, -9.48, -9.82, -9.22, -8.16, -6.33, -5.18, -3.39, -2.93, -2.3, -1.13, 0.0, 0.57, 0.65, 0.53, 0.61, 1.16, 1.61, 1.58, 1.79, 4.29, 5.06, 3.91, 4.74, 4.74, 4.29, 4.42, 2.67, 1.84, 1.84, 0.95, 0.0, 0.0, 0.0, 4.4, 4.6, 3.2, 1.4, 0.0, 0.0, -1.63, 0.0, 4.4, 4.84, 3.48, 1.98, -4.92, -3.47, 4.11, 7.55, 8.38, 6.8, 3.47, 0.0, -0.96, -2.8, -4.11, -6.94, -5.81, -5.81, -5.81, -5.26, -2.84, -1.6, -1.6, -2.84, -2.84, -3.2, -3.58, -3.2, -1.6, 0.0, 0.0, -1.79, -3.13, -3.72, -3.16, -2.4, -2.24, -2.24, -2.24, -1.58, 0.0, 0.98, 1.99, 2.8, 3.0, -9.37, -9.08, -9.42, -9.42, -9.13, -9.13, -9.13, -9.46, -9.17, -9.17, -9.48, -9.48, -9.19, -9.21, -9.5, -8.83, -7.48, -6.33, -5.18, -4.55, -3.47, -2.69, -1.08, 0.0, 0.0, 0.4, 0.63, 0.89, 1.79, 1.79, 1.34, 1.49, 4.43, 4.29, 4.29, 5.37, 5.31, 3.77, 2.69, 0.89, 0.0, 0.0, 0.0, 0.0, 2.98, 6.58, 7.45, 5.36, 4.02, 3.2, 3.2, 3.0, 6.4, 7.01, 6.51, 4.74, 3.0, 1.13, 2.68, 6.94, 7.15, 7.45, 7.06, 6.8, 5.06, 3.72, 1.63, 0.0, -2.6, -6.71, -5.37, -3.22, -0.0, 3.48, 4.8, 3.82, -0.0, -1.6, -3.39, -4.02, -4.02, -3.2, -2.24, -1.79, 0.0, 0.0, -2.21, -2.48, -2.97, -3.13, -3.58, -2.97, -2.24, -1.58, 0.0, 1.05, 2.16, 2.16, -9.37, -9.08, -9.42, -9.42, -9.13, -9.13, -9.13, -9.46, -9.17, -9.17, -9.17, -9.48, -9.19, -9.21, -9.21, -8.85, -8.18, -7.06, -6.56, -5.38, -4.58, -3.37, -2.19, -0.57, 0.0, 0.53, 1.16, 1.19, 1.6, 1.86, 1.2, 1.26, 1.61, 3.0, 4.29, 4.74, 4.42, 3.4, 1.32, 0.0, -0.95, 0.0, 0.0, 1.63, 5.36, 7.5, 7.5, 6.4, 5.36, 4.74, 4.74, 4.74, 5.72, 5.36, 4.43, 3.47, 1.63, 3.0, 6.08, 6.9, 6.57, 5.72, 5.36, 4.74, 5.06, 5.06, 3.91, 4.14, 0.0, -5.94, -2.2, 2.76, 5.6, 7.1, 7.6, 6.45, 5.26, 0.0, -3.58, -4.47, -4.47, -4.02, -3.58, -3.58, -2.68, 0.0, 2.21, 0.0, -2.68, -2.68, -3.2, -2.21, -2.24, -1.2, -0.87, 0.0, 0.0, 0.0, -9.37, -9.37, -9.08, -9.42, -9.42, -9.13, -9.13, -9.13, -9.46, -9.17, -9.17, -9.19, -9.19, -9.21, -8.87, -8.22, -7.55, -7.1, -6.4, -5.21, -4.07, -3.37, -2.28, -0.54, 0.0, 0.53, 0.56, 0.54, 0.53, 0.65, 1.2, 1.26, 1.0, 3.47, 4.54, 5.15, 4.29, 2.66, 0.0, 0.0, 0.0, 2.2, 4.02, 4.43, 6.9, 7.63, 7.63, 6.52, 5.06, 4.29, 4.02, 4.74, 4.74, 4.02, 3.0, 1.4, 1.25, 2.54, 5.31, 6.32, 6.01, 5.37, 4.29, 3.0, 3.0, 1.84, 3.2, 3.2, 0.0, -2.6, 2.6, 5.82, 6.88, 7.6, 7.55, 7.12, 5.95, 3.48, -1.9, -4.47, -4.77, -4.4, -4.09, -2.98, -3.2, -3.13, 0.0, 0.0, 0.0, 0.0, -1.98, -2.98, -2.68, -1.2, -1.27, -1.13, 0.0, 0.0, -9.37, -9.37, -9.08, -9.08, -9.42, -9.13, -9.13, -9.13, -9.46, -9.17, -9.17, -9.19, -9.19, -8.87, -8.59, -7.96, -7.55, -7.53, -6.43, -4.62, -2.9, -2.28, -1.71, -0.56, 0.0, 0.0, -0.53, -0.58, -0.54, 0.0, 0.45, 1.2, 1.26, 2.15, 2.79, 3.79, 2.95, 1.52, 1.52, 1.52, 4.43, 6.4, 5.72, 6.52, 7.28, 7.6, 6.63, 5.69, 4.14, 3.91, 3.91, 4.29, 4.29, 3.2, 2.66, 1.49, 1.32, 2.54, 4.37, 4.37, 4.14, 4.14, 2.66, 1.4, 0.0, 0.0, 0.0, 0.0, 0.0, 3.72, 6.71, 6.26, 6.71, 7.15, 7.37, 6.99, 6.6, 5.58, 3.48, 0.0, -2.21, -2.48, -2.2, -2.97, -3.58, -3.58, -2.68, 0.0, 1.4, 2.8, 0.0, -3.82, -3.13, -1.58, 0.0, 0.0, 0.0, 0.0, -9.37, -9.37, -9.08, -9.08, -9.08, -9.42, -9.13, -9.13, -9.13, -9.17, -9.17, -8.87, -8.87, -8.59, -8.87, -9.77, -8.23, -7.32, -5.86, -3.5, -2.9, -3.56, -3.39, -3.29, -2.49, -2.6, -1.76, -2.64, -2.23, 0.0, 0.45, 1.34, 1.49, 1.58, 1.9, 1.61, 0.61, 0.0, 0.95, 2.99, 4.16, 5.37, 5.37, 5.37, 6.28, 6.01, 5.31, 3.8, 3.6, 2.99, 2.82, 2.82, 3.68, 2.66, 2.66, 2.82, 2.82, 2.54, 3.8, 3.8, 2.54, 2.54, 1.25, 0.0, 0.0, -1.03, -0.89, -0.95, 0.83, 4.37, 6.01, 5.37, 5.84, 5.58, 6.0, 6.45, 6.88, 6.57, 6.0, 4.98, 3.6, 1.41, -0.0, -1.4, -2.21, -2.21, -0.0, -0.0, 2.68, 2.98, 1.6, 0.0, -1.9, 0.0, 0.0, 0.0, 0.0, 0.0, -9.02, -9.37, -9.37, -9.08, -9.08, -9.42, -9.13, -9.13, -9.13, -8.87, -8.87, -8.58, -8.87, -8.87, -8.59, -8.59, -8.24, -6.98, -7.51, -6.43, -5.62, -5.8, -5.64, -7.38, -6.84, -4.34, -3.79, -0.89, -0.0, -0.0, 0.89, 1.2, 1.49, 1.58, 1.61, 1.0, 0.59, 0.0, 0.0, 0.57, 1.76, 2.14, 2.16, 2.36, 2.36, 3.8, 3.8, 2.69, 2.54, 2.54, 2.82, 3.91, 3.91, 3.91, 3.0, 2.82, 2.54, 2.51, 2.67, 1.2, 1.32, 0.0, 0.0, 0.0, -1.03, -0.96, -1.03, -0.95, 0.0, 1.75, 3.45, 3.49, 2.57, 1.84, 3.48, 5.26, 5.73, 6.2, 6.57, 6.57, 5.94, 4.92, 2.48, -0.0, -0.0, -0.0, -0.0, -0.0, 0.0, 1.58, 1.41, 2.53, 3.2, 3.2, 2.68, 3.2, 2.8, 2.8, -9.02, -9.02, -9.37, -9.08, -9.08, -9.08, -9.13, -9.13, -8.85, -8.56, -8.87, -8.58, -8.87, -8.59, -8.87, -8.59, -7.96, -6.98, -7.27, -8.95, -8.72, -6.34, -6.08, -6.67, -5.09, -2.77, -0.5, 0.0, 0.0, 0.63, 1.26, 1.58, 1.9, 1.61, 1.88, 1.16, 0.59, 0.0, 0.0, 0.57, 1.2, 1.12, 1.14, 1.16, 1.07, 2.54, 2.54, 2.54, 1.32, 1.49, 2.66, 4.29, 4.56, 4.56, 3.91, 3.55, 3.4, 2.4, 1.2, 0.0, 0.0, 0.0, 0.0, 0.0, -0.89, -1.03, -1.03, 0.0, 0.89, 1.65, 1.67, 0.85, -0.89, -1.84, 0.0, 3.39, 4.47, 6.17, 6.45, 6.57, 5.95, 5.6, 4.92, 2.53, -0.0, -0.0, -1.6, -2.4, -1.9, 0.0, 0.0, 3.82, 4.47, 3.9, 3.58, 2.98, 1.98, 1.98, -9.02, -9.02, -9.02, -9.08, -9.08, -9.08, -8.82, -8.85, -8.85, -8.56, -8.87, -8.58, -8.87, -8.59, -8.87, -8.59, -8.23, -7.61, -7.95, -8.24, -6.7, -4.69, -3.84, -4.43, -4.47, -2.92, -1.09, 0.0, 0.0, 0.57, 1.6, 1.84, 1.84, 1.84, 1.84, 1.13, 1.11, 0.55, 0.59, 0.58, 0.58, 0.58, 1.16, 1.07, 1.19, 1.7, 1.4, 1.32, 1.49, 3.2, 5.72, 6.08, 5.06, 4.29, 4.29, 3.91, 3.77, 2.54, 1.2, -1.32, -1.73, -1.84, -1.84, -1.73, -1.84, -1.72, -1.03, 0.0, 0.0, 1.58, 1.4, 0.0, -3.22, -4.47, 1.13, 2.21, 3.47, 4.92, 5.81, 6.02, 6.57, 5.82, 5.94, 4.92, 4.47, 3.2, 1.4, -0.0, -0.0, -0.0, 1.58, 3.13, 3.58, 3.58, 3.13, 2.98, 2.48, 2.48, -9.02, -9.02, -9.02, -8.78, -8.82, -8.82, -8.82, -8.53, -8.85, -8.56, -8.87, -8.58, -8.87, -8.87, -8.87, -8.59, -8.87, -7.96, -8.24, -7.59, -6.53, -3.94, -2.26, -2.2, -2.86, -2.8, -1.61, -0.54, 0.0, 1.14, 1.73, 1.76, 1.58, 1.58, 1.11, 1.11, 1.23, 0.55, 0.54, 0.53, 0.53, 0.53, 0.54, 0.61, 1.08, 1.19, 1.32, 1.4, 2.8, 5.72, 6.52, 6.08, 4.29, 4.29, 4.29, 4.29, 3.72, 3.4, 1.4, -0.95, -3.55, -4.42, -3.77, -3.55, -3.0, -2.8, -1.84, 0.0, 0.0, 0.89, 1.58, 1.98, -2.8, -1.84, -0.0, 1.13, 2.53, 4.15, 5.29, 6.26, 6.21, 6.88, 6.45, 6.88, 6.45, 5.73, 5.36, 4.98, 3.48, 1.19, -0.0, 1.2, 2.68, 2.68, 2.8, 2.21, 1.98, 1.98, -9.02, -9.02, -8.78, -8.78, -8.5, -8.82, -8.82, -8.53, -8.85, -8.56, -8.87, -8.58, -9.19, -9.21, -8.87, -8.87, -8.59, -8.23, -7.96, -7.59, -6.68, -4.72, -3.27, -2.23, -1.8, -1.67, -1.12, -0.56, 0.0, 0.53, 1.16, 1.73, 1.57, 1.08, 1.08, 1.08, 0.55, 0.61, 0.54, 0.59, 0.53, 0.59, 0.54, 0.55, 0.57, 0.57, 1.4, 3.2, 5.72, 6.52, 6.9, 5.37, 4.29, 4.29, 4.29, 4.29, 2.8, 3.0, 2.82, 0.0, -4.11, -5.95, -5.49, -4.74, -2.99, -0.96, 0.0, 0.0, 0.0, 0.0, 0.0, -0.0, -1.98, -2.16, -0.0, -0.0, 3.22, 6.0, 6.64, 6.51, 6.71, 6.26, 6.65, 6.51, 6.99, 6.88, 6.64, 6.26, 5.36, 1.6, -0.0, -0.0, -0.0, 1.79, 1.58, 1.2, 1.4, 1.4, -9.02, -9.02, -8.78, -8.78, -8.78, -8.78, -8.82, -8.53, -8.53, -8.85, -8.87, -9.19, -9.5, -9.21, -8.87, -8.59, -8.23, -8.23, -7.96, -7.59, -7.19, -6.29, -4.72, -3.42, -2.3, -1.71, -1.1, -0.56, 0.0, 0.57, 1.14, 1.16, 1.07, 1.07, 0.54, 0.54, 0.61, 0.54, 0.54, 0.0, 0.0, 0.0, 0.0, 0.0, 0.0, 0.0, 0.0, 1.7, 3.08, 3.49, 3.2, 4.56, 4.29, 4.29, 4.29, 3.2, 3.0, 1.84, 1.73, 1.98, 0.0, -4.4, -4.98, -3.72, 0.0, 3.16, 3.22, 2.16, 0.96, -0.89, -0.89, 0.0, -3.48, -3.0, -1.84, -0.0, 2.6, 4.74, 6.28, 6.21, 6.28, 6.21, 6.26, 6.51, 7.37, 6.88, 6.88, 6.88, 5.94, 3.9, 1.9, -0.98, -0.0, -0.0, 0.0, 0.0, 1.58, 1.58, -8.73, -8.73, -8.45, -8.78, -8.78, -8.78, -8.5, -8.82, -8.53, -8.85, -8.87, -9.19, -9.19, -8.87, -8.59, -8.23, -7.96, -7.96, -7.96, -7.59, -6.94, -6.29, -5.64, -4.54, -3.42, -2.28, -1.67, -0.58, 0.0, 0.0, 0.53, 0.58, 0.58, 0.53, 0.53, 0.0, 0.0, 0.0, 0.0, 0.0, 0.0, 0.0, 0.0, 0.0, 0.0, 0.0, 0.0, 0.61, 1.73, 1.76, 2.23, 2.23, 4.29, 4.29, 4.56, 3.91, 3.0, 1.52, 1.63, 3.4, 1.73, 0.0, -1.6, 1.9, 4.92, 6.45, 6.21, 4.58, 0.0, -1.01, -1.84, -1.4, -2.21, -4.11, -3.72, -0.95, 0.78, 3.33, 4.58, 6.18, 6.21, 6.02, 5.81, 6.26, 6.65, 7.1, 7.37, 6.99, 6.0, 5.2, 5.26, -1.13, -0.98, -0.0, -0.0, 0.0, 1.79, 1.79, -8.73, -8.73, -8.45, -8.45, -8.45, -8.78, -8.5, -8.5, -8.53, -8.85, -8.56, -8.88, -8.87, -8.87, -8.59, -7.96, -7.96, -7.96, -7.59, -7.33, -6.96, -6.56, -5.89, -5.23, -4.54, -3.57, -2.25, -1.65, -1.14, 0.0, 0.0, -0.58, 0.0, 0.0, 0.0, 0.0, 0.0, 0.0, 0.0, 0.0, -0.59, -0.54, -0.54, 0.0, 0.0, -0.55, 0.0, 0.0, 0.59, 1.33, 1.61, 1.84, 1.6, 2.23, 2.8, 3.0, 2.82, 3.0, 2.8, 3.0, 1.4, 1.73, 1.4, 4.29, 7.94, 7.12, 6.55, 3.77, 1.73, 0.0, -1.84, -1.75, -0.95, -2.53, -2.48, -2.16, -0.0, 0.78, 2.82, 4.58, 5.49, 5.2, 4.85, 5.81, 6.26, 6.21, 7.12, 6.6, 6.57, 6.45, 6.02, 5.29, -0.0, -0.0, -0.0, 1.79, 1.79, 1.79, -8.73, -8.73, -8.73, -8.45, -8.45, -8.45, -8.45, -8.5, -8.5, -8.85, -8.56, -8.87, -8.58, -8.58, -8.24, -7.96, -7.59, -7.59, -7.33, -7.6, -6.96, -6.31, -5.67, -5.67, -5.23, -4.08, -3.42, -3.42, -2.93, -2.17, -1.67, -1.14, -1.16, -0.55, -0.56, -0.57, -0.53, -0.58, -0.53, -0.59, -0.59, -1.07, -0.54, -1.07, -1.73, -2.44, -2.23, 0.0, 0.53, 1.2, 1.4, 1.16, 1.16, 1.16, 1.13, 1.98, 2.66, 4.29, 3.91, 3.0, 0.89, 0.0, 0.89, 5.49, 7.35, 8.4, 5.24, 2.83, 0.84, 0.0, -0.84, -1.75, -1.84, 0.0, 2.48, 2.84, -0.0, -0.0, -0.0, 3.0, 3.72, 2.44, 2.63, 4.47, 4.92, 5.29, 5.75, 6.57, 6.88, 7.08, 6.88, 6.45, 4.77, 1.98, 1.4, 1.58, 0.0, 0.0, -8.73, -8.73, -8.73, -8.45, -8.45, -8.19, -8.19, -8.22, -8.22, -8.53, -8.56, -8.87, -8.58, -8.24, -8.24, -8.24, -7.59, -7.33, -7.6, -6.96, -6.7, -6.58, -5.92, -5.92, -5.02, -5.26, -4.6, -3.94, -3.45, -2.8, -2.3, -2.19, -1.69, -1.71, -1.18, -1.1, -1.12, -1.14, -1.14, -1.05, -1.16, -1.07, -1.73, -1.84, -1.84, -2.51, -3.35, -1.86, 0.0, 1.24, 1.2, 1.2, 1.16, 0.61, 0.51, 0.51, 1.63, 4.29, 3.91, 3.0, 0.95, 0.0, 1.84, 6.18, 7.82, 6.01, 5.1, 2.83, 0.0, -1.75, -1.95, -1.75, -2.69, 0.0, 5.73, 6.2, 4.8, -0.0, -0.89, -0.0, 2.99, 2.15, 2.0, 2.24, 4.47, 4.47, 5.29, 6.17, 6.64, 6.64, 6.45, 6.0, 5.75, 4.02, 2.8, 2.24, 0.0, 0.0, -8.73, -8.73, -8.73, -8.45, -8.19, -8.19, -8.19, -7.9, -8.22, -8.53, -8.53, -8.56, -8.24, -7.96, -7.96, -7.6, -7.6, -7.6, -7.6, -6.96, -6.97, -6.33, -6.33, -5.69, -5.69, -5.04, -4.6, -4.4, -3.94, -3.3, -2.97, -2.83, -2.33, -2.21, -1.71, -1.73, -1.76, -1.65, -1.67, -1.67, -1.7, -1.7, -2.18, -1.7, -0.55, -2.8, -5.4, -2.24, 0.89, 1.86, 1.49, 1.2, 0.53, 0.61, 0.51, 0.0, 0.57, 1.23, 2.8, 2.8, 0.95, 0.89, 3.77, 6.45, 5.53, 4.68, 4.68, 4.37, 0.0, -3.55, -4.42, -2.99, -1.73, 0.0, 4.8, 6.0, 6.64, 4.4, -0.0, -0.0, 0.96, 1.24, 1.49, 1.7, 1.79, 4.02, 4.02, 4.38, 4.38, 4.15, 4.57, 4.98, 4.8, 5.4, 4.02, 2.68, 2.24, 2.24, -8.38, -8.38, -8.38, -8.15, -8.19, -8.19, -8.19, -7.9, -8.22, -8.22, -8.53, -8.85, -8.24, -7.96, -7.6, -7.6, -7.6, -7.6, -7.33, -6.96, -6.97, -6.33, -6.33, -5.69, -5.69, -5.04, -5.04, -4.63, -4.16, -4.16, -3.94, -3.49, -3.32, -2.86, -2.37, -2.4, -2.26, -2.29, -1.8, -1.67, -2.16, -2.36, -2.82, -2.18, -1.7, -2.82, -2.95, -0.45, 1.2, 1.9, 1.2, 1.2, 0.53, 0.61, 0.59, 0.0, 0.0, 0.57, 0.57, 1.03, 0.95, 1.84, 4.5, 5.1, 3.8, 2.67, 2.64, 3.4, 1.52, -1.98, -2.4, 0.0, 1.84, 2.2, 3.16, 4.19, 5.6, 5.51, 2.2, -0.0, -0.0, -0.0, -0.0, 0.6, 0.89, 0.8, 0.95, 1.98, 1.98, 2.21, 3.39, 4.0, 4.6, 4.6, 4.38, 3.13, 2.68, 2.68, -8.38, -8.38, -8.38, -8.15, -7.86, -8.19, -8.19, -8.19, -8.22, -8.22, -8.24, -8.24, -7.95, -7.61, -7.33, -7.6, -7.6, -7.33, -7.33, -6.97, -6.97, -6.33, -6.33, -6.08, -5.95, -5.7, -5.29, -4.63, -5.2, -4.44, -4.66, -4.66, -4.0, -3.52, -3.37, -2.73, -2.75, -2.96, -2.29, -2.32, -2.16, -2.82, -2.82, -2.82, -2.8, -2.96, -1.14, 0.57, 1.6, 1.84, 1.16, 0.61, 0.61, 0.61, 0.59, 0.59, 0.0, 0.0, 0.0, 0.0, 0.95, 2.67, 3.45, 2.99, 2.69, 0.89, 0.0, 0.0, 1.73, 1.63, 2.99, 4.58, 4.6, 1.49, 3.13, 3.22, 2.99, 3.79, 2.99, -0.0, -0.88, -0.88, -0.0, -0.0, -0.0, 0.0, 0.0, 0.0, 0.0, 0.0, 2.24, 2.97, 4.15, 4.6, 4.34, 3.13, 2.68, 2.68, -8.38, -8.38, -8.38, -8.15, -7.86, -7.86, -8.19, -8.19, -7.9, -8.22, -7.93, -8.24, -8.24, -7.95, -7.61, -7.33, -7.33, -7.61, -6.97, -6.97, -6.71, -6.71, -6.33, -6.34, -6.34, -5.7, -5.7, -5.06, -5.06, -5.86, -4.47, -4.73, -4.71, -4.45, -4.03, -3.37, -3.4, -2.75, -2.77, -2.8, -2.8, -3.04, -3.04, -3.22, -3.22, -2.96, -1.73, 0.0, 0.59, 0.57, 0.0, 0.0, 0.0, 0.0, 0.0, 0.59, 0.59, 0.51, 0.0, 0.0, 0.61, 2.67, 2.69, 1.84, 1.75, 0.0, 0.0, 0.0, 0.0, 1.32, 4.26, 4.5, 2.67, 0.84, 1.41, 2.2, 0.96, 2.16, 1.7, -0.0, -0.81, -1.83, -0.88, -0.87, -0.4, -0.45, -0.6, -1.0, 0.0, 0.0, 0.0, 2.68, 3.58, 4.15, 4.57, 4.02, 2.68, 2.68, -8.65, -8.65, -8.38, -8.15, -8.15, -7.86, -8.19, -8.19, -7.9, -8.22, -8.22, -7.93, -7.93, -7.93, -7.61, -7.61, -7.61, -7.61, -7.33, -6.97, -6.71, -6.98, -6.61, -6.34, -6.34, -5.7, -5.7, -5.7, -5.7, -4.63, -4.05, -3.84, -4.47, -4.47, -4.46, -4.05, -4.05, -3.4, -3.42, -3.45, -2.8, -3.04, -3.47, -3.47, -3.47, -2.8, -2.14, -1.12, -0.59, 0.0, 0.0, 0.0, 0.0, 0.0, 0.0, 0.0, 0.59, 0.57, 0.57, 0.0, 1.49, 2.82, 2.82, 2.54, 0.89, 0.0, 0.0, 0.0, 0.0, 1.58, 3.4, 4.0, 1.32, 0.84, 0.95, 2.68, -0.0, -0.0, -0.0, -0.0, -0.0, -0.88, -0.88, -0.0, -0.99, -1.34, -1.86, -2.21, -1.83, 0.0, 0.0, 1.9, 2.4, 3.58, 4.15, 4.34, 3.13, 3.13, -8.65, -8.65, -8.38, -8.15, -8.15, -7.86, -7.86, -8.19, -7.9, -8.22, -8.22, -7.93, -7.93, -7.93, -7.93, -7.61, -7.61, -7.33, -7.33, -7.26, -6.98, -6.98, -6.98, -6.34, -6.34, -6.34, -5.7, -5.7, -5.7, -5.29, -3.97, -3.37, -3.42, -3.85, -4.1, -4.47, -4.47, -4.08, -3.84, -3.45, -3.45, -3.47, -3.47, -3.47, -3.47, -3.47, -2.8, -2.36, -1.73, -1.23, -1.13, -0.51, 0.0, 0.0, 0.0, 0.0, 0.51, 0.57, 0.57, 0.63, 1.08, 2.82, 2.82, 2.54, 1.32, 1.32, 1.73, 1.73, 0.89, 1.73, 1.63, 2.69, 1.4, 1.75, 1.84, 0.96, -1.6, -1.98, -0.96, -0.0, -0.0, -0.87, -0.98, -0.0, -0.99, -1.79, -2.49, -3.79, -2.0, 0.0, 0.0, -0.0, 1.4, 2.68, 3.58, 4.0, 3.9, 3.9, -8.65, -8.65, -8.65, -8.38, -8.15, -8.15, -7.86, -8.19, -8.19, -7.9, -8.22, -8.22, -7.93, -7.93, -7.93, -7.93, -7.61, -7.61, -7.61, -7.32, -6.98, -6.98, -6.7, -6.34, -6.34, -6.34, -6.08, -5.7, -5.7, -5.7, -5.06, -3.97, -3.56, -3.42, -3.85, -4.1, -4.47, -4.47, -4.08, -4.1, -3.45, -3.47, -3.47, -3.47, -3.47, -3.45, -3.47, -2.82, -2.84, -2.22, -1.8, -1.13, -0.59, 0.0, 0.0, 0.0, 0.57, 0.57, 0.57, 0.63, 0.63, 1.08, 1.32, 0.89, 1.75, 1.26, 1.75, 0.89, 0.89, 0.89, 0.0, 1.96, 1.47, 1.67, 0.85, 0.0, -2.2, -3.72, -1.05, -0.0, -0.0, -0.99, -0.87, -1.13, -1.4, -3.13, -3.39, -1.4, 0.0, 0.0, 0.0, -0.0, 1.13, 2.53, 2.68, 2.97, 4.0, 4.0, -8.65, -8.65, -8.65, -8.38, -8.15, -8.15, -7.86, -8.19, -8.19, -7.9, -8.22, -8.22, -8.22, -8.22, -7.93, -7.93, -7.61, -7.61, -7.32, -7.32, -6.98, -6.98, -6.7, -6.7, -6.34, -6.34, -6.08, -5.7, -5.7, -5.7, -5.06, -5.06, -4.66, -4.03, -3.64, -4.1, -4.1, -4.47, -4.47, -4.1, -3.85, -3.47, -3.47, -4.68, -4.12, -4.45, -4.12, -3.49, -3.22, -2.22, -1.8, -1.13, -0.59, 0.0, 0.0, 0.0, 0.57, 0.57, 0.63, 1.23, 1.23, 1.08, 0.0, 0.89, 0.89, 1.26, 0.89, 0.0, 0.0, 0.0, 0.0, 0.89, 1.47, 1.33, 0.0, -0.84, -1.98, -2.68, -0.0, -0.88, -1.98, -1.98, -1.13, -0.99, -1.2, -0.0, 0.0, 1.9, 1.6, 1.4, 0.0, 1.4, 1.27, 2.53, 2.8, 2.68, 2.97, 3.6, -8.29, -8.29, -8.65, -8.65, -8.38, -8.15, -8.15, -8.19, -8.19, -8.19, -8.22, -7.9, -7.9, -7.9, -8.22, -7.93, -7.93, -7.32, -7.32, -7.32, -6.7, -6.7, -6.7, -6.7, -6.34, -6.34, -6.34, -6.08, -5.7, -5.7, -5.46, -5.06, -5.06, -4.44, -4.03, -3.83, -3.84, -4.1, -4.47, -4.47, -4.12, -3.84, -3.84, -4.68, -3.49, -5.01, -5.01, -4.43, -4.11, -2.86, -2.23, -1.8, -0.59, 0.0, 0.0, 0.0, 0.0, 0.63, 0.55, 1.08, 1.23, 1.23, 2.82, 0.89, 0.84, 0.0, 0.0, 0.0, 0.0, 0.0, 0.89, 1.32, 0.0, 0.0, 0.0, -1.84, -1.6, -0.0, -0.0, -1.66, -2.84, -2.23, -1.98, -0.99, -1.0, 0.0, 0.0, 0.0, 1.4, 2.21, 2.68, 1.6, 2.48, 2.84, 2.8, 2.24, 2.24, 2.97, -8.29, -8.29, -8.29, -8.65, -8.38, -8.15, -8.15, -7.86, -8.19, -8.19, -8.19, -7.9, -7.9, -7.9, -7.9, -7.9, -7.32, -7.32, -7.6, -6.98, -6.98, -6.98, -6.98, -6.98, -6.7, -6.34, -6.34, -6.08, -6.08, -5.7, -5.7, -5.46, -5.32, -5.08, -4.44, -4.03, -4.05, -4.08, -4.47, -4.47, -4.45, -4.12, -4.45, -3.45, -4.68, -4.71, -5.75, -5.21, -4.07, -3.48, -2.48, -1.8, -0.57, 0.0, 0.0, 0.0, 0.0, 0.55, 0.55, 1.08, 1.23, 1.57, 1.19, 1.32, 0.0, 0.0, 0.0, 0.0, 0.84, 1.84, 0.94, 0.0, 0.0, 0.0, 0.0, -2.23, -2.48, -0.0, -0.0, -2.0, -1.8, -1.8, -1.98, -2.21, -1.58, -1.79, 0.0, 0.0, 0.0, 1.9, 2.68, 2.53, 2.0, 1.13, 1.9, 2.24, 0.0, 2.24, -8.29, -8.29, -8.29, -8.29, -8.65, -8.38, -8.15, -8.15, -8.19, -8.19, -8.19, -8.19, -7.9, -7.9, -7.6, -7.6, -7.6, -7.6, -6.98, -6.98, -6.98, -6.98, -6.98, -6.98, -6.98, -6.34, -6.34, -6.34, -6.08, -5.7, -5.7, -5.7, -5.72, -5.72, -5.08, -4.66, -4.69, -4.46, -4.47, -4.47, -4.45, -4.45, -4.45, -4.47, -4.08, -5.24, -4.6, -4.8, -3.88, -2.84, -2.23, -1.27, -0.57, 0.0, 0.0, 0.0, 0.0, 0.55, 0.61, 1.19, 1.08, 1.23, 2.66, 1.49, 2.54, 2.54, 0.84, 1.4, 1.73, 1.84, 0.84, 0.0, -1.4, 0.0, 0.0, 0.0, -2.4, -0.95, -1.14, -2.2, -1.8, -1.8, -2.23, -2.21, -2.68, -2.4, -1.9, 0.0, 0.0, 2.68, 3.13, 2.84, 2.48, 1.13, 1.9, 2.24, 0.0, 0.0, -8.55, -8.55, -8.29, -8.29, -8.65, -8.38, -8.38, -8.15, -8.15, -7.86, -7.86, -7.86, -7.59, -7.59, -7.3, -7.3, -7.3, -7.3, -6.98, -6.98, -6.69, -6.69, -6.98, -6.98, -6.98, -6.7, -6.7, -6.34, -6.34, -6.34, -5.95, -5.7, -5.7, -5.72, -5.72, -5.08, -5.08, -4.69, -4.46, -4.47, -4.47, -4.75, -4.75, -4.75, -4.71, -2.96, -2.23, -3.53, -3.39, -2.79, -1.84, -0.59, -0.57, 0.0, 0.0, 0.0, 0.0, 0.61, 0.54, 1.07, 1.19, 1.08, 1.73, 2.54, 2.99, 3.6, 3.8, 2.54, 2.51, 1.84, 0.0, -0.84, -1.47, -1.84, 0.0, 0.0, 0.0, -0.0, -1.98, -2.16, -0.88, -0.98, -1.98, -2.97, -3.13, -3.2, -1.9, 0.0, 0.0, 2.68, 4.02, 4.34, 3.35, 1.6, 2.24, 0.0, 0.0, 0.0, -8.55, -8.55, -8.55, -8.29, -8.29, -8.65, -8.38, -8.15, -8.15, -8.15, -7.86, -7.59, -7.59, -7.59, -7.59, -7.3, -7.3, -6.98, -6.98, -6.69, -6.69, -6.69, -6.98, -7.3, -7.3, -6.98, -6.7, -6.7, -6.34, -6.34, -6.34, -6.34, -5.7, -5.7, -5.72, -5.72, -5.72, -5.34, -5.09, -4.83, -4.47, -4.47, -4.47, -4.75, -4.46, -3.37, -2.29, -2.86, -2.84, -2.23, -1.27, -0.57, 0.0, 0.0, 0.0, 0.0, 0.0, 0.54, 0.59, 1.16, 1.16, 1.07, 1.19, 2.82, 2.82, 4.14, 3.8, 3.8, 2.51, 1.84, 0.0, -0.89, -1.75, -1.84, -0.89, 0.0, 2.67, 2.4, -0.0, -1.99, -1.99, -0.98, -1.98, -2.97, -2.68, -2.4, -1.9, 0.0, 0.0, 3.13, 3.82, 4.47, 4.02, -0.0, 0.0, 0.0, 0.0, 0.0, -8.55, -8.55, -8.55, -8.29, -8.29, -8.65, -8.44, -8.15, -7.81, -7.81, -7.55, -7.27, -7.27, -7.59, -7.59, -7.59, -7.59, -6.97, -6.97, -6.97, -6.97, -6.97, -7.3, -7.3, -7.3, -7.6, -7.6, -6.98, -6.7, -6.7, -6.34, -6.34, -6.34, -6.08, -5.98, -5.72, -5.72, -5.72, -5.34, -5.36, -5.1, -4.47, -4.75, -4.75, -4.47, -4.05, -3.37, -2.75, -2.32, -1.84, -1.16, -0.54, -0.54, 0.0, 0.0, 0.0, 0.0, 0.59, 0.59, 1.05, 1.14, 1.05, 1.16, 1.07, 2.54, 3.6, 2.69, 2.67, 2.67, 0.89, 0.0, -1.84, -1.75, -1.84, 0.0, 0.89, 2.69, 3.63, 2.67, 0.0, -2.48, -1.83, -1.98, -2.21, -2.68, -1.79, -1.79, 0.0, 0.0, 2.8, 4.0, 2.68, 2.68, 0.0, 0.0, 0.0, 0.0, 0.0, -8.55, -8.55, -8.37, -8.37, -8.29, -8.08, -8.08, -7.81, -7.81, -7.55, -7.55, -7.55, -7.27, -7.27, -7.27, -7.27, -6.97, -6.97, -6.97, -6.97, -6.97, -7.59, -7.59, -7.3, -7.6, -7.6, -7.6, -7.6, -7.3, -6.7, -6.7, -6.34, -6.34, -6.34, -6.08, -6.35, -6.35, -5.72, -5.72, -5.72, -5.36, -5.1, -5.1, -4.81, -4.47, -4.73, -4.05, -3.37, -2.92, -2.26, -1.65, -1.14, -0.58, -0.53, -0.53, 0.0, 0.0, 0.58, 0.58, 1.14, 1.14, 1.14, 1.14, 1.16, 1.16, 1.4, 1.4, 0.94, 0.0, 0.0, -0.84, -1.65, -0.89, 0.0, 0.0, 0.85, 1.67, 1.67, 2.69, 2.54, 0.0, -2.84, -2.2, -1.13, -1.9, -2.24, -2.24, -1.79, 0.0, 3.58, 3.58, 1.9, 0.0, 0.0, 0.0, 0.0, 0.0, 0.0, -8.18, -8.18, -8.0, -8.37, -8.37, -8.08, -8.08, -8.08, -7.55, -7.55, -7.55, -7.55, -7.55, -7.27, -7.27, -7.27, -6.97, -6.97, -6.97, -6.97, -7.27, -7.59, -7.59, -7.6, -7.6, -7.6, -7.6, -7.6, -7.6, -7.6, -7.6, -6.98, -6.98, -6.34, -6.34, -6.08, -6.35, -6.35, -5.72, -5.72, -5.72, -5.44, -5.38, -5.1, -5.1, -4.47, -4.08, -3.83, -3.4, -2.75, -2.29, -1.65, -1.14, -1.14, -0.58, 0.0, 0.0, 0.58, 0.58, 1.14, 1.14, 1.23, 1.14, 1.14, 1.16, 1.4, 0.0, 0.0, 0.0, 0.0, -0.89, 0.0, 0.0, 0.0, 0.0, 0.85, 0.85, 0.94, 0.89, 1.75, 1.84, -2.21, -1.99, -0.98, -1.4, -2.4, -2.68, -2.24, -0.0, 2.68, 2.21, 2.21, 3.13, 2.68, 0.0, 0.0, 0.0, 0.0, -8.0, -8.0, -8.0, -8.0, -8.0, -8.08, -8.08, -8.08, -7.85, -7.55, -7.55, -7.55, -7.55, -7.55, -7.55, -7.27, -6.97, -6.97, -6.97, -6.97, -6.97, -7.59, -7.86, -7.9, -7.9, -7.9, -7.6, -7.6, -7.6, -7.6, -7.6, -7.6, -6.98, -6.98, -6.7, -6.7, -6.35, -6.35, -6.08, -6.35, -5.72, -5.72, -5.44, -5.38, -5.1, -4.73, -4.47, -4.08, -3.42, -2.96, -2.77, -2.14, -1.8, -1.14, -0.58, 0.0, 0.0, 0.53, 0.57, 0.57, 0.57, 0.57, 0.57, 0.58, 1.16, 1.32, 1.32, 1.32, 0.0, 0.0, 0.0, 0.0, 0.0, 0.0, 0.0, 0.0, 0.0, 0.0, 0.84, 0.84, 0.94, 0.0, -3.72, -1.83, -1.13, -1.2, -2.4, -1.58, -0.0, 0.0, 2.21, 3.2, 3.82, 3.2, 1.9, 0.0, 0.0, 0.0, -8.0, -8.0, -8.0, -8.0, -8.0, -8.0, -7.73, -7.73, -7.51, -7.51, -7.23, -7.23, -7.23, -7.55, -7.55, -7.27, -7.27, -7.27, -7.27, -7.27, -7.27, -7.86, -8.19, -8.19, -7.9, -7.9, -7.9, -7.9, -7.6, -7.6, -7.6, -7.6, -7.6, -7.32, -6.98, -6.7, -6.98, -6.69, -6.35, -6.08, -6.35, -6.06, -5.72, -5.44, -5.38, -5.1, -4.73, -4.08, -3.84, -3.42, -2.77, -2.29, -1.65, -1.8, -0.58, 0.0, 0.0, 0.0, 0.0, 0.57, 0.57, 0.57, 0.57, 0.58, 0.59, 0.89, 1.84, 2.54, 1.75, 0.89, 0.0, -1.75, 0.0, 0.0, 0.0, 0.0, 0.0, 0.0, 0.94, 0.94, 0.89, 0.0, -2.84, -3.22, -0.88, -0.0, -1.58, -1.58, -1.79, 0.0, 0.0, 3.13, 3.2, 2.53, 2.21, 2.68, 2.68, 2.68, -8.27, -8.27, -8.0, -8.0, -8.0, -8.0, -7.73, -7.51, -7.51, -7.51, -7.51, -7.23, -7.23, -7.55, -7.55, -7.55, -7.27, -7.27, -7.27, -7.27, -7.59, -8.19, -8.19, -8.19, -7.9, -7.9, -7.9, -7.9, -7.9, -7.9, -7.9, -7.9, -7.9, -7.6, -7.6, -7.6, -6.98, -6.98, -6.69, -6.35, -6.35, -6.35, -6.34, -5.72, -5.44, -5.38, -5.1, -4.47, -4.08, -3.42, -2.96, -2.77, -2.14, -1.12, 0.0, 0.0, 0.0, 0.0, 0.0, 0.0, 0.0, 0.57, 0.57, 0.53, 0.0, 0.83, 1.73, 2.67, 1.84, 0.84, 0.0, -1.84, -3.32, -1.75, -0.94, 0.0, 0.0, 0.0, 0.94, 0.94, 0.84, 0.0, -1.14, -2.84, -0.0, -0.0, -1.58, -2.24, -1.79, 0.0, -0.0, 0.0, 0.0, 2.21, 2.21, 3.13, 3.13, 3.13, -8.27, -7.9, -7.9, -7.64, -8.0, -8.0, -7.8, -7.51, -7.51, -7.51, -7.51, -7.23, -7.55, -7.55, -7.55, -7.55, -7.55, -7.27, -7.27, -7.27, -7.59, -7.86, -8.19, -8.19, -7.9, -7.9, -7.9, -7.9, -7.9, -7.9, -7.9, -7.9, -7.9, -7.9, -7.6, -7.6, -7.6, -6.98, -6.98, -6.69, -6.64, -6.35, -6.06, -6.01, -5.72, -5.1, -5.1, -4.73, -4.08, -3.42, -3.42, -2.77, -2.29, -0.57, -0.57, 0.0, 0.0, 0.0, 0.0, 0.0, 0.0, 0.0, 0.0, 0.0, 0.0, 0.0, 0.0, 0.95, 1.84, 1.73, 0.89, 0.0, -2.83, -4.5, -2.83, -1.75, 0.0, 0.0, 0.0, 0.0, 0.0, 0.0, 0.0, -0.0, -0.0, -1.58, -2.24, -1.79, 0.0, 1.79, 1.58, 0.0, 0.0, 0.0, 3.13, 3.58, 3.58, 3.58, -7.9, -7.9, -7.9, -7.9, -7.64, -7.44, -7.44, -7.8, -7.51, -7.51, -7.51, -7.51, -7.55, -7.55, -7.55, -7.55, -7.55, -7.55, -7.27, -7.27, -7.59, -7.86, -8.19, -8.19, -7.9, -7.9, -7.9, -7.9, -7.9, -7.9, -7.9, -7.9, -7.9, -7.9, -7.9, -7.6, -7.6, -7.3, -6.98, -6.69, -6.69, -6.35, -6.35, -6.06, -5.72, -5.72, -5.1, -4.73, -4.47, -4.08, -3.42, -2.77, -2.29, -1.12, -0.57, -0.57, -0.57, -0.61, 0.0, 0.0, 0.0, 0.0, 0.0, 0.0, 0.0, 0.0, 0.0, 0.0, 0.95, 1.73, 1.73, 0.89, 0.0, -1.72, -4.5, -2.83, -0.94, 0.0, 0.0, 0.0, 0.0, 0.0, 0.0, -0.0, -0.0, -1.2, -1.58, -1.79, 0.0, 2.24, 2.24, 2.24, 2.68, 3.13, 3.2, 3.82, 3.82, 3.82, -7.9, -7.9, -7.9, -7.9, -7.44, -7.44, -7.44, -7.8, -7.51, -7.73, -7.51, -7.85, -7.55, -7.55, -7.55, -7.55, -7.55, -7.55, -7.55, -7.27, -7.59, -7.86, -8.19, -8.19, -7.9, -7.9, -7.9, -7.9, -7.9, -7.9, -7.9, -7.9, -7.9, -8.19, -8.19, -7.9, -7.6, -7.6, -7.3, -6.98, -6.69, -6.35, -6.35, -5.72, -5.72, -5.72, -5.1, -4.71, -4.46, -3.83, -3.42, -2.96, -1.76, -1.2, -1.2, -1.2, -0.56, -0.56, -0.56, -0.56, -0.56, 0.0, 0.0, 0.0, -0.57, -0.53, -0.55, 0.0, 0.0, 0.89, 0.0, 0.89, 1.73, 1.96, 2.82, 0.0, 0.0, 0.0, 0.0, -0.89, -0.94, -0.89, -0.0, -0.0, -0.88, -2.21, -2.4, -1.58, 0.0, 1.79, 2.24, 2.68, 3.13, 3.2, 3.82, 3.82, 3.82, 3.82, -7.9, -7.9, -7.9, -7.9, -7.72, -7.44, -7.44, -7.8, -7.73, -7.73, -7.73, -7.85, -7.85, -7.55, -7.55, -7.55, -7.55, -7.55, -7.55, -7.55, -7.59, -7.86, -8.19, -8.19, -8.19, -7.9, -7.9, -7.9, -7.9, -7.9, -7.9, -7.9, -7.9, -8.19, -7.59, -7.59, -7.59, -7.3, -7.3, -6.98, -6.98, -6.35, -6.08, -6.0, -5.72, -5.72, -5.09, -5.1, -4.71, -4.05, -3.4, -2.75, -1.73, -1.73, -1.73, -1.1, -1.1, -1.1, -0.59, -0.59, -0.56, -0.61, -0.56, -0.56, -0.56, -1.12, -1.07, -0.55, 0.0, 0.0, 0.0, 0.0, 1.75, 2.69, 2.69, 2.54, 0.94, 0.0, 0.0, -0.94, -0.94, 0.0, -2.68, -1.03, -0.96, -1.41, -1.6, -0.0, -0.0, -0.0, 1.58, 2.4, 3.13, 3.2, 2.53, 2.8, 2.8, 2.8, -7.76, -7.76, -7.9, -7.9, -7.72, -7.44, -7.64, -8.0, -8.0, -7.73, -7.73, -7.73, -7.51, -7.51, -7.51, -7.55, -7.55, -7.55, -7.55, -7.55, -7.88, -7.86, -7.86, -8.19, -7.9, -7.9, -7.9, -7.9, -7.9, -7.9, -7.9, -7.9, -7.9, -7.59, -7.59, -7.59, -7.59, -7.3, -7.3, -6.98, -6.98, -6.35, -6.35, -5.72, -5.72, -5.72, -5.34, -4.69, -4.45, -3.81, -3.6, -2.92, -2.4, -1.71, -1.73, -1.18, -1.1, -1.18, -1.18, -1.18, -0.59, -0.56, -0.56, -1.18, -1.18, -1.12, -1.7, -1.73, -1.07, -0.84, 0.0, 0.0, 0.0, 1.84, 1.84, 0.94, 0.0, 0.0, 0.0, 0.0, 0.0, 0.0, 0.0, -1.41, -0.89, -0.0, -0.0, -0.0, -0.0, -0.0, 1.58, 1.58, 1.58, 2.21, 2.53, 2.53, 2.53, 2.53, -7.76, -7.76, -7.52, -7.9, -7.9, -7.64, -7.64, -8.0, -8.0, -7.73, -7.73, -7.73, -7.51, -7.51, -7.51, -7.51, -7.23, -7.55, -7.55, -7.55, -8.15, -7.86, -7.86, -8.19, -8.19, -7.9, -7.9, -7.9, -7.9, -7.9, -7.9, -7.6, -7.3, -7.59, -7.59, -7.27, -7.27, -6.97, -6.98, -6.98, -6.98, -6.63, -6.35, -5.98, -5.72, -5.72, -5.08, -4.44, -4.69, -4.03, -3.37, -2.89, -2.37, -2.23, -1.71, -1.61, -1.18, -1.18, -1.09, -1.09, -1.18, -1.1, -1.18, -1.18, -1.73, -1.63, -1.67, -2.18, -2.18, -1.84, -0.89, -0.89, 0.0, 0.84, 1.75, 0.89, 0.0, 0.0, -0.84, 0.0, 0.89, 1.84, 0.89, 0.0, -0.0, -0.96, -0.87, -0.0, -0.0, -0.0, -0.0, -0.0, 1.58, 1.4, 1.6, 2.53, 2.53, 2.53, -7.76, -7.76, -7.76, -7.9, -7.9, -7.9, -7.64, -8.0, -8.0, -8.0, -7.73, -7.51, -7.51, -7.51, -7.51, -7.51, -7.51, -7.23, -7.55, -7.55, -7.81, -8.15, -7.86, -8.19, -8.19, -7.9, -7.9, -7.9, -7.9, -7.6, -7.6, -7.6, -7.3, -7.59, -7.59, -7.27, -6.97, -6.97, -6.69, -6.98, -6.98, -6.34, -6.08, -5.7, -5.98, -5.32, -5.32, -4.66, -4.44, -4.0, -3.35, -2.86, -2.21, -2.21, -1.71, -1.71, -1.73, -1.73, -1.61, -1.61, -1.18, -1.18, -1.18, -1.71, -1.71, -2.26, -2.32, -2.36, -2.82, -2.83, -1.75, -0.84, 0.0, 0.89, 0.89, 0.94, 0.94, 0.0, 0.0, 0.0, 0.94, 1.75, 1.75, 1.41, -0.0, -1.98, -2.2, -1.13, -0.0, -0.0, -0.0, -0.0, 1.58, 1.6, 1.6, 2.53, 2.53, 2.53, -7.76, -7.76, -7.76, -7.9, -7.9, -7.9, -7.64, -8.0, -8.0, -8.0, -8.0, -7.51, -7.51, -7.51, -7.51, -7.51, -7.51, -7.51, -7.55, -7.55, -7.81, -8.15, -7.86, -7.86, -8.19, -7.9, -7.9, -7.9, -7.6, -7.6, -7.6, -7.3, -7.3, -7.3, -7.59, -6.97, -6.97, -6.97, -6.97, -6.69, -6.35, -6.34, -6.34, -5.7, -5.7, -5.29, -5.06, -4.63, -3.97, -4.0, -3.52, -2.86, -2.86, -2.21, -2.37, -2.23, -2.23, -1.84, -1.71, -1.71, -1.73, -1.73, -1.71, -1.71, -2.23, -2.26, -2.29, -2.8, -3.47, -3.0, -1.63, -0.85, 0.0, 0.89, 0.89, 0.94, 0.89, 0.89, 0.84, 0.89, 0.89, 0.89, 0.89, 1.05, -0.0, -1.98, -2.16, -1.8, -1.98, -1.2, -0.0, -0.0, 1.9, 2.53, 1.6, 1.6, 1.6, 1.6, -7.76, -7.76, -7.76, -7.9, -7.9, -7.9, -7.64, -8.0, -8.0, -8.0, -7.8, -7.8, -7.51, -7.51, -7.51, -7.51, -7.51, -7.51, -7.51, -8.08, -7.81, -8.15, -7.86, -7.86, -8.19, -7.9, -7.6, -7.6, -7.6, -7.6, -7.6, -7.3, -7.3, -7.3, -7.59, -6.97, -6.97, -6.97, -6.97, -6.35, -6.35, -6.08, -5.7, -5.7, -5.7, -5.29, -5.06, -4.63, -4.16, -3.97, -3.49, -3.01, -2.86, -2.86, -2.89, -2.37, -2.23, -2.4, -2.4, -1.84, -1.73, -1.73, -1.71, -2.37, -2.37, -2.4, -2.77, -3.0, -3.22, -3.45, -2.96, -1.75, 0.0, 1.4, 0.89, 0.94, 0.84, 0.89, 0.0, 0.0, 0.0, 0.0, 0.0, 0.0, -0.0, -1.98, -2.99, -3.22, -3.16, -2.53, -2.21, -0.0, -0.0, 1.2, 1.2, -0.0, -0.0, -0.0, -7.76, -7.76, -7.76, -7.9, -7.9, -7.9, -7.9, -7.64, -8.0, -8.0, -7.8, -7.44, -7.44, -7.44, -7.17, -7.51, -7.51, -7.51, -7.51, -8.08, -7.81, -8.15, -8.15, -7.86, -7.59, -7.9, -7.6, -7.6, -7.6, -7.6, -7.6, -7.3, -7.3, -7.3, -6.98, -6.97, -6.97, -6.97, -6.97, -6.35, -6.35, -6.35, -5.7, -5.7, -5.7, -5.29, -5.29, -4.63, -4.63, -4.16, -3.32, -3.52, -2.86, -2.86, -2.89, -2.89, -2.23, -2.4, -2.4, -2.4, -2.4, -2.23, -2.37, -2.71, -2.89, -2.92, -2.75, -2.77, -3.45, -3.45, -3.45, -2.29, -0.61, 0.0, 0.0, 0.0, 0.0, 0.0, 0.0, 0.0, 0.0, 0.0, 0.0, 0.0, 0.0, -2.16, -3.22, -4.11, -3.79, -3.48, -3.16, -1.27, -0.99, -0.0, -0.0, -0.0, -0.0, -0.0, -7.76, -7.76, -7.76, -7.9, -7.9, -7.9, -7.9, -7.64, -8.0, -8.0, -7.8, -7.44, -7.44, -7.44, -7.17, -7.51, -7.51, -7.51, -7.51, -8.08, -7.81, -8.15, -8.15, -7.86, -7.59, -7.9, -7.6, -7.6, -7.6, -7.6, -7.6, -7.3, -7.3, -7.3, -6.98, -6.97, -6.97, -6.97, -6.97, -6.35, -6.35, -6.35, -5.7, -5.7, -5.7, -5.29, -5.29, -4.63, -4.63, -4.16, -3.32, -3.52, -2.86, -2.86, -2.89, -2.89, -2.23, -2.4, -2.4, -2.4, -2.4, -2.23, -2.37, -2.71, -2.89, -2.92, -2.75, -2.77, -3.45, -3.45, -3.45, -2.29, -0.61, 0.0, 0.0, 0.0, 0.0, 0.0, 0.0, 0.0, 0.0, 0.0, 0.0, 0.0, 0.0, -1.27, -2.8, -2.99, -3.49, -3.22, -2.2, -2.0, -1.41, -0.0, -0.0, -0.0, -0.0, -0.0]}]